SR-99 : San Joaquin River Atmospheric Data: 04/18/2019 Summary  Detailed Graphs  Station List

  Temperature     Wind Precipitation Visibility
Timestamp Air Wet
Bulb
Dew-
point
24-hr
Max
24-hr
Min
Relative
Humidity
Atmospheric
Pressure
Avg
Speed
Avg
Dir
Spot
Speed
Spot
Dir
Max
Speed
Max
Dir
  Rate Situation Start End 1 hr 3 hr 6 hr 12 hr 24 hr   Situation
Date Time °F °F °F °F °F % in Hg mph ° mph ° mph ° Y/N in/hr text Date Time Date Time in in in in in mi text
04/18/2019 12:00 AM x x x x x x x 1.57 NE 0.45 N 3.58 NE No 0.000 No Precipitation 04/16/2019 02:59 AM 04/16/2019 03:03 AM 0.000 0.000 0.000 0.000 0.000 1.24 Clear
04/18/2019 12:01 AM x x x x x x x 1.34 NW 1.57 NE 3.58 NE No 0.000 No Precipitation 04/16/2019 02:59 AM 04/16/2019 03:03 AM 0.000 0.000 0.000 0.000 0.000 1.24 Clear
04/18/2019 12:02 AM x x x x x x x 1.34 NE 1.12 NE 3.13 NE No 0.000 No Precipitation 04/16/2019 02:59 AM 04/16/2019 03:03 AM 0.000 0.000 0.000 0.000 0.000 1.24 Clear
04/18/2019 12:03 AM x x x x x x x 1.34 N 1.57 NW 3.13 NE No 0.000 No Precipitation 04/16/2019 02:59 AM 04/16/2019 03:03 AM 0.000 0.000 0.000 0.000 0.000 1.24 Clear
04/18/2019 12:04 AM x x x x x x x 1.79 N 1.57 N 3.13 N No 0.000 No Precipitation 04/16/2019 02:59 AM 04/16/2019 03:03 AM 0.000 0.000 0.000 0.000 0.000 1.24 Clear
04/18/2019 12:05 AM x x x x x x x 2.01 N 2.01 E 3.13 N No 0.000 No Precipitation 04/16/2019 02:59 AM 04/16/2019 03:03 AM 0.000 0.000 0.000 0.000 0.000 1.24 Clear
04/18/2019 12:06 AM x x x x x x x 1.79 NE 2.01 NE 3.13 N No 0.000 No Precipitation 04/16/2019 02:59 AM 04/16/2019 03:03 AM 0.000 0.000 0.000 0.000 0.000 1.24 Clear
04/18/2019 12:07 AM x x x x x x x 2.24 E 1.79 NE 3.13 N No 0.000 No Precipitation 04/16/2019 02:59 AM 04/16/2019 03:03 AM 0.000 0.000 0.000 0.000 0.000 1.24 Clear
04/18/2019 12:08 AM x x x x x x x 2.46 E 2.01 E 3.58 NE No 0.000 No Precipitation 04/16/2019 02:59 AM 04/16/2019 03:03 AM 0.000 0.000 0.000 0.000 0.000 1.24 Clear
04/18/2019 12:09 AM x x x x x x x 2.46 NE 2.24 E 3.58 NE No 0.000 No Precipitation 04/16/2019 02:59 AM 04/16/2019 03:03 AM 0.000 0.000 0.000 0.000 0.000 1.24 Clear
04/18/2019 12:10 AM x x x x x x x 2.01 NE 4.25 E 3.58 NE No 0.000 No Precipitation 04/16/2019 02:59 AM 04/16/2019 03:03 AM 0.000 0.000 0.000 0.000 0.000 1.24 Clear
04/18/2019 12:11 AM x x x x x x x 2.24 E 3.36 E 4.25 E No 0.000 No Precipitation 04/16/2019 02:59 AM 04/16/2019 03:03 AM 0.000 0.000 0.000 0.000 0.000 1.24 Clear
04/18/2019 12:12 AM x x x x x x x 2.68 E 2.91 E 4.25 E No 0.000 No Precipitation 04/16/2019 02:59 AM 04/16/2019 03:03 AM 0.000 0.000 0.000 0.000 0.000 1.24 Clear
04/18/2019 12:13 AM x x x x x x x 2.68 E 2.24 E 4.25 E No 0.000 No Precipitation 04/16/2019 02:59 AM 04/16/2019 03:03 AM 0.000 0.000 0.000 0.000 0.000 1.24 Clear
04/18/2019 12:14 AM x x x x x x x 3.13 E 3.80 E 4.25 E No 0.000 No Precipitation 04/16/2019 02:59 AM 04/16/2019 03:03 AM 0.000 0.000 0.000 0.000 0.000 1.24 Clear
04/18/2019 12:15 AM x x x x x x x 3.13 E 2.68 E 4.25 E No 0.000 No Precipitation 04/16/2019 02:59 AM 04/16/2019 03:03 AM 0.000 0.000 0.000 0.000 0.000 1.24 Clear
04/18/2019 12:16 AM x x x x x x x 3.13 E 2.91 E 4.25 E No 0.000 No Precipitation 04/16/2019 02:59 AM 04/16/2019 03:03 AM 0.000 0.000 0.000 0.000 0.000 1.24 Clear
04/18/2019 12:17 AM x x x x x x x 2.91 E 1.79 NE 4.25 E No 0.000 No Precipitation 04/16/2019 02:59 AM 04/16/2019 03:03 AM 0.000 0.000 0.000 0.000 0.000 1.24 Clear
04/18/2019 12:18 AM x x x x x x x 2.68 E 2.46 E 4.25 E No 0.000 No Precipitation 04/16/2019 02:59 AM 04/16/2019 03:03 AM 0.000 0.000 0.000 0.000 0.000 1.24 Clear
04/18/2019 12:19 AM x x x x x x x 2.91 E 3.36 E 4.47 E No 0.000 No Precipitation 04/16/2019 02:59 AM 04/16/2019 03:03 AM 0.000 0.000 0.000 0.000 0.000 1.24 Clear
04/18/2019 12:20 AM x x x x x x x 3.13 E 4.47 E 4.47 E No 0.000 No Precipitation 04/16/2019 02:59 AM 04/16/2019 03:03 AM 0.000 0.000 0.000 0.000 0.000 1.24 Clear
04/18/2019 12:21 AM x x x x x x x 3.13 E 2.46 E 4.70 E No 0.000 No Precipitation 04/16/2019 02:59 AM 04/16/2019 03:03 AM 0.000 0.000 0.000 0.000 0.000 1.24 Clear
04/18/2019 12:22 AM x x x x x x x 2.91 E 3.58 E 4.70 E No 0.000 No Precipitation 04/16/2019 02:59 AM 04/16/2019 03:03 AM 0.000 0.000 0.000 0.000 0.000 1.24 Clear
04/18/2019 12:23 AM x x x x x x x 3.58 E 4.25 E 5.37 E No 0.000 No Precipitation 04/16/2019 02:59 AM 04/16/2019 03:03 AM 0.000 0.000 0.000 0.000 0.000 1.24 Clear
04/18/2019 12:24 AM x x x x x x x 4.25 E 3.13 E 5.59 E No 0.000 No Precipitation 04/16/2019 02:59 AM 04/16/2019 03:03 AM 0.000 0.000 0.000 0.000 0.000 1.24 Clear
04/18/2019 12:25 AM x x x x x x x 4.25 E 3.80 E 5.59 E No 0.000 No Precipitation 04/16/2019 02:59 AM 04/16/2019 03:03 AM 0.000 0.000 0.000 0.000 0.000 1.24 Clear
04/18/2019 12:26 AM x x x x x x x 4.25 E 3.58 E 5.59 E No 0.000 No Precipitation 04/16/2019 02:59 AM 04/16/2019 03:03 AM 0.000 0.000 0.000 0.000 0.000 1.24 Clear
04/18/2019 12:27 AM x x x x x x x 4.03 E 4.47 E 5.59 E No 0.000 No Precipitation 04/16/2019 02:59 AM 04/16/2019 03:03 AM 0.000 0.000 0.000 0.000 0.000 1.24 Clear
04/18/2019 12:28 AM x x x x x x x 4.03 E 4.47 E 5.59 E No 0.000 No Precipitation 04/16/2019 02:59 AM 04/16/2019 03:03 AM 0.000 0.000 0.000 0.000 0.000 1.24 Clear
04/18/2019 12:29 AM x x x x x x x 3.80 E 3.13 E 5.59 E No 0.000 No Precipitation 04/16/2019 02:59 AM 04/16/2019 03:03 AM 0.000 0.000 0.000 0.000 0.000 1.24 Clear
04/18/2019 12:30 AM x x x x x x x 3.58 E 3.13 E 5.59 E No 0.000 No Precipitation 04/16/2019 02:59 AM 04/16/2019 03:03 AM 0.000 0.000 0.000 0.000 0.000 1.24 Clear
04/18/2019 12:31 AM x x x x x x x 3.80 E 3.36 E 5.59 E No 0.000 No Precipitation 04/16/2019 02:59 AM 04/16/2019 03:03 AM 0.000 0.000 0.000 0.000 0.000 1.24 Clear
04/18/2019 12:32 AM x x x x x x x 3.58 E 4.03 E 5.59 E No 0.000 No Precipitation 04/16/2019 02:59 AM 04/16/2019 03:03 AM 0.000 0.000 0.000 0.000 0.000 1.24 Clear
04/18/2019 12:34 AM x x x x x x x 3.36 E 3.13 E 5.37 E No 0.000 No Precipitation 04/16/2019 02:59 AM 04/16/2019 03:03 AM 0.000 0.000 0.000 0.000 0.000 1.24 Clear
04/18/2019 12:35 AM x x x x x x x 3.58 E 2.68 E 4.92 E No 0.000 No Precipitation 04/16/2019 02:59 AM 04/16/2019 03:03 AM 0.000 0.000 0.000 0.000 0.000 1.24 Clear
04/18/2019 12:36 AM x x x x x x x 3.58 E 4.03 NE 4.70 E No 0.000 No Precipitation 04/16/2019 02:59 AM 04/16/2019 03:03 AM 0.000 0.000 0.000 0.000 0.000 1.24 Clear
04/18/2019 12:37 AM x x x x x x x 3.58 E 3.80 E 4.70 E No 0.000 No Precipitation 04/16/2019 02:59 AM 04/16/2019 03:03 AM 0.000 0.000 0.000 0.000 0.000 1.24 Clear
04/18/2019 12:38 AM x x x x x x x 3.13 E 3.58 NE 4.70 E No 0.000 No Precipitation 04/16/2019 02:59 AM 04/16/2019 03:03 AM 0.000 0.000 0.000 0.000 0.000 1.24 Clear
04/18/2019 12:39 AM x x x x x x x 2.91 E 2.24 E 4.70 E No 0.000 No Precipitation 04/16/2019 02:59 AM 04/16/2019 03:03 AM 0.000 0.000 0.000 0.000 0.000 1.24 Clear
04/18/2019 12:40 AM x x x x x x x 2.91 E 3.13 NE 4.70 E No 0.000 No Precipitation 04/16/2019 02:59 AM 04/16/2019 03:03 AM 0.000 0.000 0.000 0.000 0.000 1.24 Clear
04/18/2019 12:41 AM x x x x x x x 3.13 E 3.36 E 4.70 E No 0.000 No Precipitation 04/16/2019 02:59 AM 04/16/2019 03:03 AM 0.000 0.000 0.000 0.000 0.000 1.24 Clear
04/18/2019 12:42 AM x x x x x x x 3.13 E 2.91 NE 4.70 E No 0.000 No Precipitation 04/16/2019 02:59 AM 04/16/2019 03:03 AM 0.000 0.000 0.000 0.000 0.000 1.24 Clear
04/18/2019 12:43 AM x x x x x x x 3.13 E 4.03 E 4.70 E No 0.000 No Precipitation 04/16/2019 02:59 AM 04/16/2019 03:03 AM 0.000 0.000 0.000 0.000 0.000 1.24 Clear
04/18/2019 12:44 AM x x x x x x x 3.36 E 3.36 E 4.47 NE No 0.000 No Precipitation 04/16/2019 02:59 AM 04/16/2019 03:03 AM 0.000 0.000 0.000 0.000 0.000 1.24 Clear
04/18/2019 12:46 AM x x x x x x x 3.13 E 3.58 E 4.47 E No 0.000 No Precipitation 04/16/2019 02:59 AM 04/16/2019 03:03 AM 0.000 0.000 0.000 0.000 0.000 1.24 Clear
04/18/2019 12:47 AM x x x x x x x 3.13 E 3.36 E 4.25 E No 0.000 No Precipitation 04/16/2019 02:59 AM 04/16/2019 03:03 AM 0.000 0.000 0.000 0.000 0.000 1.24 Clear
04/18/2019 12:48 AM x x x x x x x 3.36 E 4.25 E 4.25 E No 0.000 No Precipitation 04/16/2019 02:59 AM 04/16/2019 03:03 AM 0.000 0.000 0.000 0.000 0.000 1.24 Clear
04/18/2019 12:50 AM x x x x x x x 3.36 E 3.36 E 4.25 E No 0.000 No Precipitation 04/16/2019 02:59 AM 04/16/2019 03:03 AM 0.000 0.000 0.000 0.000 0.000 1.24 Clear
04/18/2019 12:51 AM x x x x x x x 3.80 E 4.70 E 4.70 E No 0.000 No Precipitation 04/16/2019 02:59 AM 04/16/2019 03:03 AM 0.000 0.000 0.000 0.000 0.000 1.24 Clear
04/18/2019 12:52 AM x x x x x x x 4.25 E 3.80 E 4.92 E No 0.000 No Precipitation 04/16/2019 02:59 AM 04/16/2019 03:03 AM 0.000 0.000 0.000 0.000 0.000 1.24 Clear
04/18/2019 12:53 AM x x x x x x x 4.25 E 4.70 E 4.92 E No 0.000 No Precipitation 04/16/2019 02:59 AM 04/16/2019 03:03 AM 0.000 0.000 0.000 0.000 0.000 1.24 Clear
04/18/2019 12:54 AM x x x x x x x 4.25 E 4.92 E 5.14 E No 0.000 No Precipitation 04/16/2019 02:59 AM 04/16/2019 03:03 AM 0.000 0.000 0.000 0.000 0.000 1.24 Clear
04/18/2019 12:55 AM x x x x x x x 4.25 E 4.47 E 5.14 E No 0.000 No Precipitation 04/16/2019 02:59 AM 04/16/2019 03:03 AM 0.000 0.000 0.000 0.000 0.000 1.24 Clear
04/18/2019 12:56 AM x x x x x x x 4.47 E 4.47 E 5.59 E No 0.000 No Precipitation 04/16/2019 02:59 AM 04/16/2019 03:03 AM 0.000 0.000 0.000 0.000 0.000 1.24 Clear
04/18/2019 12:57 AM x x x x x x x 4.47 E 4.70 E 5.59 E No 0.000 No Precipitation 04/16/2019 02:59 AM 04/16/2019 03:03 AM 0.000 0.000 0.000 0.000 0.000 1.24 Clear
04/18/2019 12:58 AM x x x x x x x 4.25 E 4.03 E 5.59 E No 0.000 No Precipitation 04/16/2019 02:59 AM 04/16/2019 03:03 AM 0.000 0.000 0.000 0.000 0.000 1.24 Clear
04/18/2019 12:59 AM x x x x x x x 4.25 E 4.25 E 5.59 E No 0.000 No Precipitation 04/16/2019 02:59 AM 04/16/2019 03:03 AM 0.000 0.000 0.000 0.000 0.000 1.24 Clear
04/18/2019 01:00 AM x x x x x x x 4.03 E 4.03 E 5.59 E No 0.000 No Precipitation 04/16/2019 02:59 AM 04/16/2019 03:03 AM 0.000 0.000 0.000 0.000 0.000 1.24 Clear
04/18/2019 01:01 AM x x x x x x x 4.25 E 4.92 E 5.59 E No 0.000 No Precipitation 04/16/2019 02:59 AM 04/16/2019 03:03 AM 0.000 0.000 0.000 0.000 0.000 1.24 Clear
04/18/2019 01:02 AM x x x x x x x 4.25 E 4.92 E 5.59 E No 0.000 No Precipitation 04/16/2019 02:59 AM 04/16/2019 03:03 AM 0.000 0.000 0.000 0.000 0.000 1.24 Clear
04/18/2019 01:03 AM x x x x x x x 4.03 E 4.03 E 5.59 E No 0.000 No Precipitation 04/16/2019 02:59 AM 04/16/2019 03:03 AM 0.000 0.000 0.000 0.000 0.000 1.24 Clear
04/18/2019 01:04 AM x x x x x x x 3.80 E 3.58 E 5.59 E No 0.000 No Precipitation 04/16/2019 02:59 AM 04/16/2019 03:03 AM 0.000 0.000 0.000 0.000 0.000 1.24 Clear
04/18/2019 01:05 AM x x x x x x x 3.58 E 3.80 E 5.59 E No 0.000 No Precipitation 04/16/2019 02:59 AM 04/16/2019 03:03 AM 0.000 0.000 0.000 0.000 0.000 1.24 Clear
04/18/2019 01:06 AM x x x x x x x 3.36 E 4.03 E 5.59 E No 0.000 No Precipitation 04/16/2019 02:59 AM 04/16/2019 03:03 AM 0.000 0.000 0.000 0.000 0.000 1.24 Clear
04/18/2019 01:07 AM x x x x x x x 3.36 E 2.91 E 5.37 E No 0.000 No Precipitation 04/16/2019 02:59 AM 04/16/2019 03:03 AM 0.000 0.000 0.000 0.000 0.000 1.24 Clear
04/18/2019 01:08 AM x x x x x x x 3.36 E 3.36 E 5.37 E No 0.000 No Precipitation 04/16/2019 02:59 AM 04/16/2019 03:03 AM 0.000 0.000 0.000 0.000 0.000 1.24 Clear
04/18/2019 01:09 AM x x x x x x x 3.36 E 3.36 E 5.37 E No 0.000 No Precipitation 04/16/2019 02:59 AM 04/16/2019 03:03 AM 0.000 0.000 0.000 0.000 0.000 1.24 Clear
04/18/2019 01:10 AM x x x x x x x 3.36 E 3.80 E 5.37 E No 0.000 No Precipitation 04/16/2019 02:59 AM 04/16/2019 03:03 AM 0.000 0.000 0.000 0.000 0.000 1.24 Clear
04/18/2019 01:11 AM x x x x x x x 3.58 E 2.68 E 5.37 E No 0.000 No Precipitation 04/16/2019 02:59 AM 04/16/2019 03:03 AM 0.000 0.000 0.000 0.000 0.000 1.24 Clear
04/18/2019 01:12 AM x x x x x x x 4.03 E 3.80 E 5.37 E No 0.000 No Precipitation 04/16/2019 02:59 AM 04/16/2019 03:03 AM 0.000 0.000 0.000 0.000 0.000 1.24 Clear
04/18/2019 01:13 AM x x x x x x x 4.03 E 4.47 E 5.37 E No 0.000 No Precipitation 04/16/2019 02:59 AM 04/16/2019 03:03 AM 0.000 0.000 0.000 0.000 0.000 1.24 Clear
04/18/2019 01:14 AM x x x x x x x 4.25 E 5.14 E 5.37 E No 0.000 No Precipitation 04/16/2019 02:59 AM 04/16/2019 03:03 AM 0.000 0.000 0.000 0.000 0.000 1.24 Clear
04/18/2019 01:15 AM x x x x x x x 4.47 E 4.47 E 5.37 E No 0.000 No Precipitation 04/16/2019 02:59 AM 04/16/2019 03:03 AM 0.000 0.000 0.000 0.000 0.000 1.24 Clear
04/18/2019 01:16 AM x x x x x x x 4.25 E 3.80 E 5.37 E No 0.000 No Precipitation 04/16/2019 02:59 AM 04/16/2019 03:03 AM 0.000 0.000 0.000 0.000 0.000 1.24 Clear
04/18/2019 01:17 AM x x x x x x x 4.25 E 3.80 E 5.37 E No 0.000 No Precipitation 04/16/2019 02:59 AM 04/16/2019 03:03 AM 0.000 0.000 0.000 0.000 0.000 1.24 Clear
04/18/2019 01:18 AM x x x x x x x 4.03 E 4.25 E 5.37 E No 0.000 No Precipitation 04/16/2019 02:59 AM 04/16/2019 03:03 AM 0.000 0.000 0.000 0.000 0.000 1.24 Clear
04/18/2019 01:19 AM x x x x x x x 4.25 E 4.47 E 5.37 E No 0.000 No Precipitation 04/16/2019 02:59 AM 04/16/2019 03:03 AM 0.000 0.000 0.000 0.000 0.000 1.24 Clear
04/18/2019 01:20 AM x x x x x x x 4.70 E 4.92 E 5.37 E No 0.000 No Precipitation 04/16/2019 02:59 AM 04/16/2019 03:03 AM 0.000 0.000 0.000 0.000 0.000 1.24 Clear
04/18/2019 01:21 AM x x x x x x x 4.92 E 4.70 E 5.37 E No 0.000 No Precipitation 04/16/2019 02:59 AM 04/16/2019 03:03 AM 0.000 0.000 0.000 0.000 0.000 1.24 Clear
04/18/2019 01:22 AM x x x x x x x 4.70 E 3.58 E 5.37 E No 0.000 No Precipitation 04/16/2019 02:59 AM 04/16/2019 03:03 AM 0.000 0.000 0.000 0.000 0.000 1.24 Clear
04/18/2019 01:23 AM x x x x x x x 4.25 E 4.03 E 5.37 E No 0.000 No Precipitation 04/16/2019 02:59 AM 04/16/2019 03:03 AM 0.000 0.000 0.000 0.000 0.000 1.24 Clear
04/18/2019 01:24 AM x x x x x x x 4.03 E 3.36 E 5.37 E No 0.000 No Precipitation 04/16/2019 02:59 AM 04/16/2019 03:03 AM 0.000 0.000 0.000 0.000 0.000 1.24 Clear
04/18/2019 01:25 AM x x x x x x x 3.80 E 4.03 E 5.37 E No 0.000 No Precipitation 04/16/2019 02:59 AM 04/16/2019 03:03 AM 0.000 0.000 0.000 0.000 0.000 1.24 Clear
04/18/2019 01:26 AM x x x x x x x 3.58 E 3.80 E 5.37 E No 0.000 No Precipitation 04/16/2019 02:59 AM 04/16/2019 03:03 AM 0.000 0.000 0.000 0.000 0.000 1.24 Clear
04/18/2019 01:27 AM x x x x x x x 4.03 E 3.36 E 5.37 E No 0.000 No Precipitation 04/16/2019 02:59 AM 04/16/2019 03:03 AM 0.000 0.000 0.000 0.000 0.000 1.24 Clear
04/18/2019 01:28 AM x x x x x x x 4.03 E 4.03 E 5.37 E No 0.000 No Precipitation 04/16/2019 02:59 AM 04/16/2019 03:03 AM 0.000 0.000 0.000 0.000 0.000 1.24 Clear
04/18/2019 01:29 AM x x x x x x x 4.25 E 4.03 E 5.37 E No 0.000 No Precipitation 04/16/2019 02:59 AM 04/16/2019 03:03 AM 0.000 0.000 0.000 0.000 0.000 1.24 Clear
04/18/2019 01:30 AM x x x x x x x 4.25 E 4.47 E 5.37 E No 0.000 No Precipitation 04/16/2019 02:59 AM 04/16/2019 03:03 AM 0.000 0.000 0.000 0.000 0.000 1.24 Clear
04/18/2019 01:31 AM x x x x x x x 4.03 E 4.03 E 5.37 E No 0.000 No Precipitation 04/16/2019 02:59 AM 04/16/2019 03:03 AM 0.000 0.000 0.000 0.000 0.000 1.24 Clear
04/18/2019 01:33 AM x x x x x x x 3.36 E 3.36 E 5.14 E No 0.000 No Precipitation 04/16/2019 02:59 AM 04/16/2019 03:03 AM 0.000 0.000 0.000 0.000 0.000 1.24 Clear
04/18/2019 01:34 AM x x x x x x x 2.68 E 0.89 E 5.14 E No 0.000 No Precipitation 04/16/2019 02:59 AM 04/16/2019 03:03 AM 0.000 0.000 0.000 0.000 0.000 1.24 Clear
04/18/2019 01:35 AM x x x x x x x 2.24 E 2.01 E 5.14 E No 0.000 No Precipitation 04/16/2019 02:59 AM 04/16/2019 03:03 AM 0.000 0.000 0.000 0.000 0.000 1.24 Clear
04/18/2019 01:36 AM x x x x x x x 2.24 E 2.01 E 5.14 E No 0.000 No Precipitation 04/16/2019 02:59 AM 04/16/2019 03:03 AM 0.000 0.000 0.000 0.000 0.000 1.24 Clear
04/18/2019 01:37 AM x x x x x x x 2.24 E 1.57 NE 4.92 E No 0.000 No Precipitation 04/16/2019 02:59 AM 04/16/2019 03:03 AM 0.000 0.000 0.000 0.000 0.000 1.24 Clear
04/18/2019 01:38 AM x x x x x x x 2.24 E 2.68 E 4.92 E No 0.000 No Precipitation 04/16/2019 02:59 AM 04/16/2019 03:03 AM 0.000 0.000 0.000 0.000 0.000 1.24 Clear
04/18/2019 01:39 AM x x x x x x x 2.46 E 2.46 E 4.70 E No 0.000 No Precipitation 04/16/2019 02:59 AM 04/16/2019 03:03 AM 0.000 0.000 0.000 0.000 0.000 1.24 Clear
04/18/2019 01:40 AM x x x x x x x 2.68 E 2.68 E 4.25 E No 0.000 No Precipitation 04/16/2019 02:59 AM 04/16/2019 03:03 AM 0.000 0.000 0.000 0.000 0.000 1.24 Clear
04/18/2019 01:41 AM x x x x x x x 2.68 E 3.36 E 3.80 E No 0.000 No Precipitation 04/16/2019 02:59 AM 04/16/2019 03:03 AM 0.000 0.000 0.000 0.000 0.000 1.24 Clear
04/18/2019 01:42 AM x x x x x x x 2.91 E 2.91 E 4.03 E No 0.000 No Precipitation 04/16/2019 02:59 AM 04/16/2019 03:03 AM 0.000 0.000 0.000 0.000 0.000 1.24 Clear
04/18/2019 01:43 AM x x x x x x x 2.91 E 2.91 NE 4.03 E No 0.000 No Precipitation 04/16/2019 02:59 AM 04/16/2019 03:03 AM 0.000 0.000 0.000 0.000 0.000 1.24 Clear
04/18/2019 01:44 AM x x x x x x x 3.13 E 3.58 E 4.03 E No 0.000 No Precipitation 04/16/2019 02:59 AM 04/16/2019 03:03 AM 0.000 0.000 0.000 0.000 0.000 1.24 Clear
04/18/2019 01:45 AM x x x x x x x 3.36 E 3.36 E 4.03 E No 0.000 No Precipitation 04/16/2019 02:59 AM 04/16/2019 03:03 AM 0.000 0.000 0.000 0.000 0.000 1.24 Clear
04/18/2019 01:46 AM x x x x x x x 3.58 E 4.47 E 4.47 E No 0.000 No Precipitation 04/16/2019 02:59 AM 04/16/2019 03:03 AM 0.000 0.000 0.000 0.000 0.000 1.24 Clear
04/18/2019 01:47 AM x x x x x x x 4.25 E 4.47 E 4.92 E No 0.000 No Precipitation 04/16/2019 02:59 AM 04/16/2019 03:03 AM 0.000 0.000 0.000 0.000 0.000 1.24 Clear
04/18/2019 01:49 AM x x x x x x x 4.70 E 5.59 E 5.82 E No 0.000 No Precipitation 04/16/2019 02:59 AM 04/16/2019 03:03 AM 0.000 0.000 0.000 0.000 0.000 1.24 Clear
04/18/2019 01:50 AM x x x x x x x 4.70 E 5.82 E 5.82 E No 0.000 No Precipitation 04/16/2019 02:59 AM 04/16/2019 03:03 AM 0.000 0.000 0.000 0.000 0.000 1.24 Clear
04/18/2019 01:51 AM x x x x x x x 4.92 E 5.37 E 6.49 E No 0.000 No Precipitation 04/16/2019 02:59 AM 04/16/2019 03:03 AM 0.000 0.000 0.000 0.000 0.000 1.24 Clear
04/18/2019 01:52 AM x x x x x x x 5.14 E 4.70 NE 6.49 E No 0.000 No Precipitation 04/16/2019 02:59 AM 04/16/2019 03:03 AM 0.000 0.000 0.000 0.000 0.000 1.24 Clear
04/18/2019 01:53 AM x x x x x x x 4.92 E 5.14 E 6.49 E No 0.000 No Precipitation 04/16/2019 02:59 AM 04/16/2019 03:03 AM 0.000 0.000 0.000 0.000 0.000 1.24 Clear
04/18/2019 01:54 AM x x x x x x x 4.92 E 5.59 E 6.49 E No 0.000 No Precipitation 04/16/2019 02:59 AM 04/16/2019 03:03 AM 0.000 0.000 0.000 0.000 0.000 1.24 Clear
04/18/2019 01:55 AM x x x x x x x 4.92 E 5.59 E 6.49 E No 0.000 No Precipitation 04/16/2019 02:59 AM 04/16/2019 03:03 AM 0.000 0.000 0.000 0.000 0.000 1.24 Clear
04/18/2019 01:56 AM x x x x x x x 4.92 E 4.03 E 6.49 E No 0.000 No Precipitation 04/16/2019 02:59 AM 04/16/2019 03:03 AM 0.000 0.000 0.000 0.000 0.000 1.24 Clear
04/18/2019 01:57 AM x x x x x x x 5.14 E 4.92 E 6.49 E No 0.000 No Precipitation 04/16/2019 02:59 AM 04/16/2019 03:03 AM 0.000 0.000 0.000 0.000 0.000 1.24 Clear
04/18/2019 01:58 AM x x x x x x x 5.37 E 5.14 E 6.49 E No 0.000 No Precipitation 04/16/2019 02:59 AM 04/16/2019 03:03 AM 0.000 0.000 0.000 0.000 0.000 1.24 Clear
04/18/2019 01:59 AM x x x x x x x 5.37 E 5.59 E 6.49 E No 0.000 No Precipitation 04/16/2019 02:59 AM 04/16/2019 03:03 AM 0.000 0.000 0.000 0.000 0.000 1.24 Clear
04/18/2019 02:00 AM x x x x x x x 5.37 E 4.92 E 6.49 E No 0.000 No Precipitation 04/16/2019 02:59 AM 04/16/2019 03:03 AM 0.000 0.000 0.000 0.000 0.000 1.24 Clear
04/18/2019 02:01 AM x x x x x x x 5.14 E 5.14 E 6.49 E No 0.000 No Precipitation 04/16/2019 02:59 AM 04/16/2019 03:03 AM 0.000 0.000 0.000 0.000 0.000 1.24 Clear
04/18/2019 02:02 AM x x x x x x x 4.70 E 4.70 E 6.49 E No 0.000 No Precipitation 04/16/2019 02:59 AM 04/16/2019 03:03 AM 0.000 0.000 0.000 0.000 0.000 1.24 Clear
04/18/2019 02:03 AM x x x x x x x 4.47 E 4.25 NE 6.49 E No 0.000 No Precipitation 04/16/2019 02:59 AM 04/16/2019 03:03 AM 0.000 0.000 0.000 0.000 0.000 1.24 Clear
04/18/2019 02:04 AM x x x x x x x 4.03 E 3.36 E 6.49 E No 0.000 No Precipitation 04/16/2019 02:59 AM 04/16/2019 03:03 AM 0.000 0.000 0.000 0.000 0.000 1.24 Clear
04/18/2019 02:05 AM x x x x x x x 4.25 E 5.14 E 6.49 E No 0.000 No Precipitation 04/16/2019 02:59 AM 04/16/2019 03:03 AM 0.000 0.000 0.000 0.000 0.000 1.24 Clear
04/18/2019 02:06 AM x x x x x x x 4.47 E 4.47 E 6.49 E No 0.000 No Precipitation 04/16/2019 02:59 AM 04/16/2019 03:03 AM 0.000 0.000 0.000 0.000 0.000 1.24 Clear
04/18/2019 02:07 AM x x x x x x x 4.25 E 4.25 E 6.49 E No 0.000 No Precipitation 04/16/2019 02:59 AM 04/16/2019 03:03 AM 0.000 0.000 0.000 0.000 0.000 1.24 Clear
04/18/2019 02:08 AM x x x x x x x 4.25 E 4.70 E 6.49 E No 0.000 No Precipitation 04/16/2019 02:59 AM 04/16/2019 03:03 AM 0.000 0.000 0.000 0.000 0.000 1.24 Clear
04/18/2019 02:09 AM x x x x x x x 4.03 E 3.13 E 6.04 E No 0.000 No Precipitation 04/16/2019 02:59 AM 04/16/2019 03:03 AM 0.000 0.000 0.000 0.000 0.000 1.24 Clear
04/18/2019 02:10 AM x x x x x x x 3.80 E 3.36 E 5.59 E No 0.000 No Precipitation 04/16/2019 02:59 AM 04/16/2019 03:03 AM 0.000 0.000 0.000 0.000 0.000 1.24 Clear
04/18/2019 02:11 AM x x x x x x x 3.80 E 3.13 E 5.59 E No 0.000 No Precipitation 04/16/2019 02:59 AM 04/16/2019 03:03 AM 0.000 0.000 0.000 0.000 0.000 1.24 Clear
04/18/2019 02:12 AM x x x x x x x 3.36 E 3.13 E 5.59 E No 0.000 No Precipitation 04/16/2019 02:59 AM 04/16/2019 03:03 AM 0.000 0.000 0.000 0.000 0.000 1.24 Clear
04/18/2019 02:13 AM x x x x x x x 3.36 E 2.46 E 5.59 E No 0.000 No Precipitation 04/16/2019 02:59 AM 04/16/2019 03:03 AM 0.000 0.000 0.000 0.000 0.000 1.24 Clear
04/18/2019 02:14 AM x x x x x x x 2.91 E 2.68 NE 5.59 E No 0.000 No Precipitation 04/16/2019 02:59 AM 04/16/2019 03:03 AM 0.000 0.000 0.000 0.000 0.000 1.24 Clear
04/18/2019 02:15 AM x x x x x x x 3.36 E 6.26 E 6.26 E No 0.000 No Precipitation 04/16/2019 02:59 AM 04/16/2019 03:03 AM 0.000 0.000 0.000 0.000 0.000 1.24 Clear
04/18/2019 02:16 AM x x x x x x x 4.70 NE 5.14 NE 6.71 NE No 0.000 No Precipitation 04/16/2019 02:59 AM 04/16/2019 03:03 AM 0.000 0.000 0.000 0.000 0.000 1.24 Clear
04/18/2019 02:17 AM x x x x x x x 5.14 NE 4.70 E 6.71 NE No 0.000 No Precipitation 04/16/2019 02:59 AM 04/16/2019 03:03 AM 0.000 0.000 0.000 0.000 0.000 1.24 Clear
04/18/2019 02:18 AM x x x x x x x 4.47 E 4.92 E 6.71 NE No 0.000 No Precipitation 04/16/2019 02:59 AM 04/16/2019 03:03 AM 0.000 0.000 0.000 0.000 0.000 1.24 Clear
04/18/2019 02:19 AM x x x x x x x 4.25 E 4.70 E 6.71 NE No 0.000 No Precipitation 04/16/2019 02:59 AM 04/16/2019 03:03 AM 0.000 0.000 0.000 0.000 0.000 1.24 Clear
04/18/2019 02:20 AM x x x x x x x 4.47 E 5.37 E 6.71 NE No 0.000 No Precipitation 04/16/2019 02:59 AM 04/16/2019 03:03 AM 0.000 0.000 0.000 0.000 0.000 1.24 Clear
04/18/2019 02:21 AM x x x x x x x 4.47 E 4.92 E 6.71 NE No 0.000 No Precipitation 04/16/2019 02:59 AM 04/16/2019 03:03 AM 0.000 0.000 0.000 0.000 0.000 1.24 Clear
04/18/2019 02:22 AM x x x x x x x 4.92 E 5.37 E 6.71 NE No 0.000 No Precipitation 04/16/2019 02:59 AM 04/16/2019 03:03 AM 0.000 0.000 0.000 0.000 0.000 1.24 Clear
04/18/2019 02:23 AM x x x x x x x 5.14 E 4.25 E 6.71 NE No 0.000 No Precipitation 04/16/2019 02:59 AM 04/16/2019 03:03 AM 0.000 0.000 0.000 0.000 0.000 1.24 Clear
04/18/2019 02:24 AM x x x x x x x 4.70 E 4.03 E 6.71 NE No 0.000 No Precipitation 04/16/2019 02:59 AM 04/16/2019 03:03 AM 0.000 0.000 0.000 0.000 0.000 1.24 Clear
04/18/2019 02:27 AM x x x x x x x 1.57 E 0.67 S 6.26 E No 0.000 No Precipitation 04/16/2019 02:59 AM 04/16/2019 03:03 AM 0.000 0.000 0.000 0.000 0.000 1.24 Clear
04/18/2019 02:28 AM x x x x x x x 1.34 W 3.13 W 6.26 E No 0.000 No Precipitation 04/16/2019 02:59 AM 04/16/2019 03:03 AM 0.000 0.000 0.000 0.000 0.000 1.24 Clear
04/18/2019 02:29 AM x x x x x x x 2.91 W 5.59 W 6.26 E No 0.000 No Precipitation 04/16/2019 02:59 AM 04/16/2019 03:03 AM 0.000 0.000 0.000 0.000 0.000 1.24 Clear
04/18/2019 02:30 AM x x x x x x x 4.70 W 4.92 W 6.26 E No 0.000 No Precipitation 04/16/2019 02:59 AM 04/16/2019 03:03 AM 0.000 0.000 0.000 0.000 0.000 1.24 Clear
04/18/2019 02:31 AM x x x x x x x 4.92 W 3.58 W 6.04 W No 0.000 No Precipitation 04/16/2019 02:59 AM 04/16/2019 03:03 AM 0.000 0.000 0.000 0.000 0.000 1.24 Clear
04/18/2019 02:32 AM x x x x x x x 4.03 W 3.36 W 6.04 W No 0.000 No Precipitation 04/16/2019 02:59 AM 04/16/2019 03:03 AM 0.000 0.000 0.000 0.000 0.000 1.24 Clear
04/18/2019 02:33 AM x x x x x x x 3.58 W 3.13 W 6.04 W No 0.000 No Precipitation 04/16/2019 02:59 AM 04/16/2019 03:03 AM 0.000 0.000 0.000 0.000 0.000 1.24 Clear
04/18/2019 02:34 AM x x x x x x x 3.80 W 4.03 W 6.04 W No 0.000 No Precipitation 04/16/2019 02:59 AM 04/16/2019 03:03 AM 0.000 0.000 0.000 0.000 0.000 1.24 Clear
04/18/2019 02:35 AM x x x x x x x 4.03 W 3.80 W 6.04 W No 0.000 No Precipitation 04/16/2019 02:59 AM 04/16/2019 03:03 AM 0.000 0.000 0.000 0.000 0.000 1.24 Clear
04/18/2019 02:36 AM x x x x x x x 3.58 W 2.46 W 6.04 W No 0.000 No Precipitation 04/16/2019 02:59 AM 04/16/2019 03:03 AM 0.000 0.000 0.000 0.000 0.000 1.24 Clear
04/18/2019 02:37 AM x x x x x x x 2.68 W 1.79 W 6.04 W No 0.000 No Precipitation 04/16/2019 02:59 AM 04/16/2019 03:03 AM 0.000 0.000 0.000 0.000 0.000 1.24 Clear
04/18/2019 02:38 AM x x x x x x x 2.24 W 2.24 W 6.04 W No 0.000 No Precipitation 04/16/2019 02:59 AM 04/16/2019 03:03 AM 0.000 0.000 0.000 0.000 0.000 1.24 Clear
04/18/2019 02:39 AM x x x x x x x 2.68 W 3.80 W 5.59 W No 0.000 No Precipitation 04/16/2019 02:59 AM 04/16/2019 03:03 AM 0.000 0.000 0.000 0.000 0.000 1.24 Clear
04/18/2019 02:40 AM x x x x x x x 3.80 W 4.70 W 4.70 W No 0.000 No Precipitation 04/16/2019 02:59 AM 04/16/2019 03:03 AM 0.000 0.000 0.000 0.000 0.000 1.24 Clear
04/18/2019 02:41 AM x x x x x x x 4.47 W 4.25 W 4.70 W No 0.000 No Precipitation 04/16/2019 02:59 AM 04/16/2019 03:03 AM 0.000 0.000 0.000 0.000 0.000 1.24 Clear
04/18/2019 02:42 AM x x x x x x x 4.03 W 3.13 W 4.70 W No 0.000 No Precipitation 04/16/2019 02:59 AM 04/16/2019 03:03 AM 0.000 0.000 0.000 0.000 0.000 1.24 Clear
04/18/2019 02:43 AM x x x x x x x 3.13 W 2.46 NW 4.70 W No 0.000 No Precipitation 04/16/2019 02:59 AM 04/16/2019 03:03 AM 0.000 0.000 0.000 0.000 0.000 1.24 Clear
04/18/2019 02:44 AM x x x x x x x 2.68 NW 2.68 NW 4.70 W No 0.000 No Precipitation 04/16/2019 02:59 AM 04/16/2019 03:03 AM 0.000 0.000 0.000 0.000 0.000 1.24 Clear
04/18/2019 02:45 AM x x x x x x x 2.68 NW 2.91 W 4.70 W No 0.000 No Precipitation 04/16/2019 02:59 AM 04/16/2019 03:03 AM 0.000 0.000 0.000 0.000 0.000 1.24 Clear
04/18/2019 02:46 AM x x x x x x x 3.13 NW 3.36 W 4.70 W No 0.000 No Precipitation 04/16/2019 02:59 AM 04/16/2019 03:03 AM 0.000 0.000 0.000 0.000 0.000 1.24 Clear
04/18/2019 02:47 AM x x x x x x x 3.36 W 3.36 W 4.70 W No 0.000 No Precipitation 04/16/2019 02:59 AM 04/16/2019 03:03 AM 0.000 0.000 0.000 0.000 0.000 1.24 Clear
04/18/2019 02:48 AM x x x x x x x 3.36 W 2.91 W 4.70 W No 0.000 No Precipitation 04/16/2019 02:59 AM 04/16/2019 03:03 AM 0.000 0.000 0.000 0.000 0.000 1.24 Clear
04/18/2019 02:49 AM x x x x x x x 2.68 W 2.46 NW 4.70 W No 0.000 No Precipitation 04/16/2019 02:59 AM 04/16/2019 03:03 AM 0.000 0.000 0.000 0.000 0.000 1.24 Clear
04/18/2019 02:50 AM x x x x x x x 2.46 NW 2.24 NW 4.70 W No 0.000 No Precipitation 04/16/2019 02:59 AM 04/16/2019 03:03 AM 0.000 0.000 0.000 0.000 0.000 1.24 Clear
04/18/2019 02:51 AM x x x x x x x 2.46 NW 2.46 NW 3.80 W No 0.000 No Precipitation 04/16/2019 02:59 AM 04/16/2019 03:03 AM 0.000 0.000 0.000 0.000 0.000 1.24 Clear
04/18/2019 02:52 AM x x x x x x x 2.46 NW 2.01 NW 3.80 W No 0.000 No Precipitation 04/16/2019 02:59 AM 04/16/2019 03:03 AM 0.000 0.000 0.000 0.000 0.000 1.24 Clear
04/18/2019 02:53 AM x x x x x x x 2.24 NW 2.01 NW 3.80 W No 0.000 No Precipitation 04/16/2019 02:59 AM 04/16/2019 03:03 AM 0.000 0.000 0.000 0.000 0.000 1.24 Clear
04/18/2019 02:54 AM x x x x x x x 2.24 NW 2.24 NW 3.80 W No 0.000 No Precipitation 04/16/2019 02:59 AM 04/16/2019 03:03 AM 0.000 0.000 0.000 0.000 0.000 1.24 Clear
04/18/2019 02:55 AM x x x x x x x 2.68 W 3.36 W 3.80 W No 0.000 No Precipitation 04/16/2019 02:59 AM 04/16/2019 03:03 AM 0.000 0.000 0.000 0.000 0.000 1.24 Clear
04/18/2019 02:56 AM x x x x x x x 2.91 W 2.46 NW 3.58 W No 0.000 No Precipitation 04/16/2019 02:59 AM 04/16/2019 03:03 AM 0.000 0.000 0.000 0.000 0.000 1.24 Clear
04/18/2019 02:57 AM x x x x x x x 2.68 NW 2.01 NW 3.36 W No 0.000 No Precipitation 04/16/2019 02:59 AM 04/16/2019 03:03 AM 0.000 0.000 0.000 0.000 0.000 1.24 Clear
04/18/2019 02:58 AM x x x x x x x 2.24 NW 2.24 NW 3.36 W No 0.000 No Precipitation 04/16/2019 02:59 AM 04/16/2019 03:03 AM 0.000 0.000 0.000 0.000 0.000 1.24 Clear
04/18/2019 02:59 AM x x x x x x x 2.68 NW 3.58 NW 3.80 NW No 0.000 No Precipitation 04/16/2019 02:59 AM 04/16/2019 03:03 AM 0.000 0.000 0.000 0.000 0.000 1.24 Clear
04/18/2019 03:00 AM x x x x x x x 3.36 NW 3.36 W 4.25 NW No 0.000 No Precipitation 04/16/2019 02:59 AM 04/16/2019 03:03 AM 0.000 0.000 0.000 0.000 0.000 1.24 Clear
04/18/2019 03:01 AM x x x x x x x 3.58 W 3.36 W 4.25 NW No 0.000 No Precipitation 04/16/2019 02:59 AM 04/16/2019 03:03 AM 0.000 0.000 0.000 0.000 0.000 1.24 Clear
04/18/2019 03:02 AM x x x x x x x 3.36 W 2.91 NW 4.25 NW No 0.000 No Precipitation 04/16/2019 02:59 AM 04/16/2019 03:03 AM 0.000 0.000 0.000 0.000 0.000 1.24 Clear
04/18/2019 03:03 AM x x x x x x x 2.91 NW 2.01 NW 4.25 NW No 0.000 No Precipitation 04/16/2019 02:59 AM 04/16/2019 03:03 AM 0.000 0.000 0.000 0.000 0.000 1.24 Clear
04/18/2019 03:04 AM x x x x x x x 2.01 NW 1.34 NW 4.25 NW No 0.000 No Precipitation 04/16/2019 02:59 AM 04/16/2019 03:03 AM 0.000 0.000 0.000 0.000 0.000 1.24 Clear
04/18/2019 03:05 AM x x x x x x x 1.79 NW 2.01 NW 4.25 NW No 0.000 No Precipitation 04/16/2019 02:59 AM 04/16/2019 03:03 AM 0.000 0.000 0.000 0.000 0.000 1.24 Clear
04/18/2019 03:06 AM x x x x x x x 2.01 NW 2.68 W 4.25 NW No 0.000 No Precipitation 04/16/2019 02:59 AM 04/16/2019 03:03 AM 0.000 0.000 0.000 0.000 0.000 1.24 Clear
04/18/2019 03:07 AM x x x x x x x 2.46 W 2.91 W 4.25 NW No 0.000 No Precipitation 04/16/2019 02:59 AM 04/16/2019 03:03 AM 0.000 0.000 0.000 0.000 0.000 1.24 Clear
04/18/2019 03:08 AM x x x x x x x 2.68 W 2.24 W 4.25 NW No 0.000 No Precipitation 04/16/2019 02:59 AM 04/16/2019 03:03 AM 0.000 0.000 0.000 0.000 0.000 1.24 Clear
04/18/2019 03:09 AM x x x x x x x 2.24 W 1.57 W 3.80 NW No 0.000 No Precipitation 04/16/2019 02:59 AM 04/16/2019 03:03 AM 0.000 0.000 0.000 0.000 0.000 1.24 Clear
04/18/2019 03:10 AM x x x x x x x 1.79 W 1.57 W 3.80 W No 0.000 No Precipitation 04/16/2019 02:59 AM 04/16/2019 03:03 AM 0.000 0.000 0.000 0.000 0.000 1.24 Clear
04/18/2019 03:11 AM x x x x x x x 1.57 W 1.79 W 3.36 NW No 0.000 No Precipitation 04/16/2019 02:59 AM 04/16/2019 03:03 AM 0.000 0.000 0.000 0.000 0.000 1.24 Clear
04/18/2019 03:12 AM x x x x x x x 1.79 W 2.01 W 3.13 W No 0.000 No Precipitation 04/16/2019 02:59 AM 04/16/2019 03:03 AM 0.000 0.000 0.000 0.000 0.000 1.24 Clear
04/18/2019 03:13 AM x x x x x x x 1.79 W 1.57 W 3.13 W No 0.000 No Precipitation 04/16/2019 02:59 AM 04/16/2019 03:03 AM 0.000 0.000 0.000 0.000 0.000 1.24 Clear
04/18/2019 03:14 AM x x x x x x x 1.57 W 1.57 W 3.13 W No 0.000 No Precipitation 04/16/2019 02:59 AM 04/16/2019 03:03 AM 0.000 0.000 0.000 0.000 0.000 1.24 Clear
04/18/2019 03:16 AM x x x x x x x 1.79 W 2.01 W 3.13 W No 0.000 No Precipitation 04/16/2019 02:59 AM 04/16/2019 03:03 AM 0.000 0.000 0.000 0.000 0.000 1.24 Clear
04/18/2019 03:17 AM x x x x x x x 1.79 W 2.24 W 2.46 W No 0.000 No Precipitation 04/16/2019 02:59 AM 04/16/2019 03:03 AM 0.000 0.000 0.000 0.000 0.000 1.24 Clear
04/18/2019 03:18 AM x x x x x x x 2.01 W 1.57 W 2.46 W No 0.000 No Precipitation 04/16/2019 02:59 AM 04/16/2019 03:03 AM 0.000 0.000 0.000 0.000 0.000 1.24 Clear
04/18/2019 03:19 AM x x x x x x x 1.79 W 1.79 NW 2.46 W No 0.000 No Precipitation 04/16/2019 02:59 AM 04/16/2019 03:03 AM 0.000 0.000 0.000 0.000 0.000 1.24 Clear
04/18/2019 03:20 AM x x x x x x x 1.57 NW 1.34 NW 2.46 W No 0.000 No Precipitation 04/16/2019 02:59 AM 04/16/2019 03:03 AM 0.000 0.000 0.000 0.000 0.000 1.24 Clear
04/18/2019 03:21 AM x x x x x x x 1.34 NW 0.89 NW 2.46 W No 0.000 No Precipitation 04/16/2019 02:59 AM 04/16/2019 03:03 AM 0.000 0.000 0.000 0.000 0.000 1.24 Clear
04/18/2019 03:22 AM x x x x x x x 1.12 NW 1.57 NW 2.46 W No 0.000 No Precipitation 04/16/2019 02:59 AM 04/16/2019 03:03 AM 0.000 0.000 0.000 0.000 0.000 1.24 Clear
04/18/2019 03:23 AM x x x x x x x 1.57 W 2.01 W 2.46 W No 0.000 No Precipitation 04/16/2019 02:59 AM 04/16/2019 03:03 AM 0.000 0.000 0.000 0.000 0.000 1.24 Clear
04/18/2019 03:24 AM x x x x x x x 1.79 W 1.79 W 2.46 W No 0.000 No Precipitation 04/16/2019 02:59 AM 04/16/2019 03:03 AM 0.000 0.000 0.000 0.000 0.000 1.24 Clear
04/18/2019 03:25 AM x x x x x x x 1.79 W 1.57 NW 2.46 W No 0.000 No Precipitation 04/16/2019 02:59 AM 04/16/2019 03:03 AM 0.000 0.000 0.000 0.000 0.000 1.24 Clear
04/18/2019 03:26 AM x x x x x x x 1.57 W 1.12 NW 2.46 W No 0.000 No Precipitation 04/16/2019 02:59 AM 04/16/2019 03:03 AM 0.000 0.000 0.000 0.000 0.000 1.24 Clear
04/18/2019 03:27 AM x x x x x x x 1.12 NW 1.12 NW 2.01 W No 0.000 No Precipitation 04/16/2019 02:59 AM 04/16/2019 03:03 AM 0.000 0.000 0.000 0.000 0.000 1.24 Clear
04/18/2019 03:28 AM x x x x x x x 1.34 NW 1.79 NW 2.24 NW No 0.000 No Precipitation 04/16/2019 02:59 AM 04/16/2019 03:03 AM 0.000 0.000 0.000 0.000 0.000 1.24 Clear
04/18/2019 03:29 AM x x x x x x x 1.79 NW 1.79 W 2.24 NW No 0.000 No Precipitation 04/16/2019 02:59 AM 04/16/2019 03:03 AM 0.000 0.000 0.000 0.000 0.000 1.24 Clear
04/18/2019 03:30 AM x x x x x x x 1.79 W 1.79 W 2.24 NW No 0.000 No Precipitation 04/16/2019 02:59 AM 04/16/2019 03:03 AM 0.000 0.000 0.000 0.000 0.000 1.24 Clear
04/18/2019 03:31 AM x x x x x x x 1.79 W 1.12 NW 2.24 NW No 0.000 No Precipitation 04/16/2019 02:59 AM 04/16/2019 03:03 AM 0.000 0.000 0.000 0.000 0.000 1.24 Clear
04/18/2019 03:32 AM x x x x x x x 1.57 NW 1.34 NW 2.24 NW No 0.000 No Precipitation 04/16/2019 02:59 AM 04/16/2019 03:03 AM 0.000 0.000 0.000 0.000 0.000 1.24 Clear
04/18/2019 03:33 AM x x x x x x x 1.34 NW 1.57 N 2.24 NW No 0.000 No Precipitation 04/16/2019 02:59 AM 04/16/2019 03:03 AM 0.000 0.000 0.000 0.000 0.000 1.24 Clear
04/18/2019 03:34 AM x x x x x x x 1.57 N 2.46 N 2.46 N No 0.000 No Precipitation 04/16/2019 02:59 AM 04/16/2019 03:03 AM 0.000 0.000 0.000 0.000 0.000 1.24 Clear
04/18/2019 03:35 AM x x x x x x x 1.79 N 2.68 NW 2.68 NW No 0.000 No Precipitation 04/16/2019 02:59 AM 04/16/2019 03:03 AM 0.000 0.000 0.000 0.000 0.000 1.24 Clear
04/18/2019 03:36 AM x x x x x x x 2.24 NW 2.46 W 2.68 NW No 0.000 No Precipitation 04/16/2019 02:59 AM 04/16/2019 03:03 AM 0.000 0.000 0.000 0.000 0.000 1.24 Clear
04/18/2019 03:37 AM x x x x x x x 2.46 W 2.01 W 2.68 W No 0.000 No Precipitation 04/16/2019 02:59 AM 04/16/2019 03:03 AM 0.000 0.000 0.000 0.000 0.000 1.24 Clear
04/18/2019 03:38 AM x x x x x x x 2.01 W 1.79 NW 2.68 W No 0.000 No Precipitation 04/16/2019 02:59 AM 04/16/2019 03:03 AM 0.000 0.000 0.000 0.000 0.000 1.24 Clear
04/18/2019 03:39 AM x x x x x x x 1.57 NW 0.89 NW 2.68 W No 0.000 No Precipitation 04/16/2019 02:59 AM 04/16/2019 03:03 AM 0.000 0.000 0.000 0.000 0.000 1.24 Clear
04/18/2019 03:40 AM x x x x x x x 1.57 NW 2.24 NW 2.91 NW No 0.000 No Precipitation 04/16/2019 02:59 AM 04/16/2019 03:03 AM 0.000 0.000 0.000 0.000 0.000 1.24 Clear
04/18/2019 03:41 AM x x x x x x x 1.79 NW 2.01 W 2.91 NW No 0.000 No Precipitation 04/16/2019 02:59 AM 04/16/2019 03:03 AM 0.000 0.000 0.000 0.000 0.000 1.24 Clear
04/18/2019 03:42 AM x x x x x x x 2.01 W 2.01 W 2.91 NW No 0.000 No Precipitation 04/16/2019 02:59 AM 04/16/2019 03:03 AM 0.000 0.000 0.000 0.000 0.000 1.24 Clear
04/18/2019 03:43 AM x x x x x x x 2.01 NW 1.57 W 2.91 NW No 0.000 No Precipitation 04/16/2019 02:59 AM 04/16/2019 03:03 AM 0.000 0.000 0.000 0.000 0.000 1.24 Clear
04/18/2019 03:44 AM x x x x x x x 1.79 NW 1.57 NW 2.91 NW No 0.000 No Precipitation 04/16/2019 02:59 AM 04/16/2019 03:03 AM 0.000 0.000 0.000 0.000 0.000 1.24 Clear
04/18/2019 03:45 AM x x x x x x x 1.34 NW 0.89 N 2.91 NW No 0.000 No Precipitation 04/16/2019 02:59 AM 04/16/2019 03:03 AM 0.000 0.000 0.000 0.000 0.000 1.24 Clear
04/18/2019 03:46 AM x x x x x x x 0.89 N 0.89 N 2.91 NW No 0.000 No Precipitation 04/16/2019 02:59 AM 04/16/2019 03:03 AM 0.000 0.000 0.000 0.000 0.000 1.24 Clear
04/18/2019 03:47 AM x x x x x x x 0.67 N 1.57 NW 2.91 NW No 0.000 No Precipitation 04/16/2019 02:59 AM 04/16/2019 03:03 AM 0.000 0.000 0.000 0.000 0.000 1.24 Clear
04/18/2019 03:48 AM x x x x x x x 0.89 NW 1.12 NW 2.91 NW No 0.000 No Precipitation 04/16/2019 02:59 AM 04/16/2019 03:03 AM 0.000 0.000 0.000 0.000 0.000 1.24 Clear
04/18/2019 03:49 AM x x x x x x x 0.89 NW 1.12 NW 2.91 NW No 0.000 No Precipitation 04/16/2019 02:59 AM 04/16/2019 03:03 AM 0.000 0.000 0.000 0.000 0.000 1.24 Clear
04/18/2019 03:50 AM x x x x x x x 1.12 NW 1.12 NW 2.46 NW No 0.000 No Precipitation 04/16/2019 02:59 AM 04/16/2019 03:03 AM 0.000 0.000 0.000 0.000 0.000 1.24 Clear
04/18/2019 03:51 AM x x x x x x x 1.12 NW 0.89 NW 2.46 NW No 0.000 No Precipitation 04/16/2019 02:59 AM 04/16/2019 03:03 AM 0.000 0.000 0.000 0.000 0.000 1.24 Clear
04/18/2019 03:52 AM x x x x x x x 1.12 NW 1.34 N 2.01 W No 0.000 No Precipitation 04/16/2019 02:59 AM 04/16/2019 03:03 AM 0.000 0.000 0.000 0.000 0.000 1.24 Clear
04/18/2019 03:53 AM x x x x x x x 1.12 N 1.57 N 1.79 N No 0.000 No Precipitation 04/16/2019 02:59 AM 04/16/2019 03:03 AM 0.000 0.000 0.000 0.000 0.000 1.24 Clear
04/18/2019 03:54 AM x x x x x x x 1.12 N 1.12 N 1.79 N No 0.000 No Precipitation 04/16/2019 02:59 AM 04/16/2019 03:03 AM 0.000 0.000 0.000 0.000 0.000 1.24 Clear
04/18/2019 03:57 AM x x x x x x x 1.12 NW 0.67 N 2.01 NW No 0.000 No Precipitation 04/16/2019 02:59 AM 04/16/2019 03:03 AM 0.000 0.000 0.000 0.000 0.000 1.24 Clear
04/18/2019 03:58 AM x x x x x x x 0.89 NE 0.67 N 2.01 NW No 0.000 No Precipitation 04/16/2019 02:59 AM 04/16/2019 03:03 AM 0.000 0.000 0.000 0.000 0.000 1.24 Clear
04/18/2019 03:59 AM x x x x x x x 0.89 N 1.12 E 2.01 NW No 0.000 No Precipitation 04/16/2019 02:59 AM 04/16/2019 03:03 AM 0.000 0.000 0.000 0.000 0.000 1.24 Clear
04/18/2019 04:00 AM x x x x x x x 1.12 E 2.01 E 2.24 E No 0.000 No Precipitation 04/16/2019 02:59 AM 04/16/2019 03:03 AM 0.000 0.000 0.000 0.000 0.000 1.24 Clear
04/18/2019 04:01 AM x x x x x x x 1.57 E 1.57 NE 2.24 E No 0.000 No Precipitation 04/16/2019 02:59 AM 04/16/2019 03:03 AM 0.000 0.000 0.000 0.000 0.000 1.24 Clear
04/18/2019 04:02 AM x x x x x x x 1.12 E 1.34 E 2.24 E No 0.000 No Precipitation 04/16/2019 02:59 AM 04/16/2019 03:03 AM 0.000 0.000 0.000 0.000 0.000 1.24 Clear
04/18/2019 04:03 AM x x x x x x x 1.12 E 1.12 E 2.24 E No 0.000 No Precipitation 04/16/2019 02:59 AM 04/16/2019 03:03 AM 0.000 0.000 0.000 0.000 0.000 1.24 Clear
04/18/2019 04:04 AM x x x x x x x 1.34 E 1.12 SE 2.24 E No 0.000 No Precipitation 04/16/2019 02:59 AM 04/16/2019 03:03 AM 0.000 0.000 0.000 0.000 0.000 1.24 Clear
04/18/2019 04:05 AM x x x x x x x 1.12 E 0.89 SE 2.24 E No 0.000 No Precipitation 04/16/2019 02:59 AM 04/16/2019 03:03 AM 0.000 0.000 0.000 0.000 0.000 1.24 Clear
04/18/2019 04:09 AM x x x x x x x 1.12 E 1.57 E 2.24 E No 0.000 No Precipitation 04/16/2019 02:59 AM 04/16/2019 03:03 AM 0.000 0.000 0.000 0.000 0.000 1.24 Clear
04/18/2019 04:10 AM x x x x x x x 1.34 E 1.12 NE 2.24 E No 0.000 No Precipitation 04/16/2019 02:59 AM 04/16/2019 03:03 AM 0.000 0.000 0.000 0.000 0.000 1.24 Clear
04/18/2019 04:11 AM x x x x x x x 1.34 NE 0.89 NE 3.13 N No 0.000 No Precipitation 04/16/2019 02:59 AM 04/16/2019 03:03 AM 0.000 0.000 0.000 0.000 0.000 1.24 Clear
04/18/2019 04:12 AM x x x x x x x 1.34 NE 2.01 NE 3.13 N No 0.000 No Precipitation 04/16/2019 02:59 AM 04/16/2019 03:03 AM 0.000 0.000 0.000 0.000 0.000 1.24 Clear
04/18/2019 04:13 AM x x x x x x x 1.57 NE 1.12 E 3.13 N No 0.000 No Precipitation 04/16/2019 02:59 AM 04/16/2019 03:03 AM 0.000 0.000 0.000 0.000 0.000 1.24 Clear
04/18/2019 04:14 AM x x x x x x x 1.79 E 1.79 NE 3.13 N No 0.000 No Precipitation 04/16/2019 02:59 AM 04/16/2019 03:03 AM 0.000 0.000 0.000 0.000 0.000 1.24 Clear
04/18/2019 04:15 AM x x x x x x x 1.57 NE 1.57 NE 3.13 N No 0.000 No Precipitation 04/16/2019 02:59 AM 04/16/2019 03:03 AM 0.000 0.000 0.000 0.000 0.000 1.24 Clear
04/18/2019 04:16 AM x x x x x x x 1.57 NE 1.79 E 3.13 N No 0.000 No Precipitation 04/16/2019 02:59 AM 04/16/2019 03:03 AM 0.000 0.000 0.000 0.000 0.000 1.24 Clear
04/18/2019 04:17 AM x x x x x x x 1.34 NE 0.67 E 3.13 N No 0.000 No Precipitation 04/16/2019 02:59 AM 04/16/2019 03:03 AM 0.000 0.000 0.000 0.000 0.000 1.24 Clear
04/18/2019 04:18 AM x x x x x x x 0.67 E 0.22 SW 3.13 N No 0.000 No Precipitation 04/16/2019 02:59 AM 04/16/2019 03:03 AM 0.000 0.000 0.000 0.000 0.000 1.24 Clear
04/18/2019 04:19 AM x x x x x x x 0.67 E 1.34 N 3.13 N No 0.000 No Precipitation 04/16/2019 02:59 AM 04/16/2019 03:03 AM 0.000 0.000 0.000 0.000 0.000 1.24 Clear
04/18/2019 04:20 AM x x x x x x x 0.89 NW 1.12 NW 2.68 E No 0.000 No Precipitation 04/16/2019 02:59 AM 04/16/2019 03:03 AM 0.000 0.000 0.000 0.000 0.000 1.24 Clear
04/18/2019 04:21 AM x x x x x x x 0.89 NW 1.12 NW 2.68 E No 0.000 No Precipitation 04/16/2019 02:59 AM 04/16/2019 03:03 AM 0.000 0.000 0.000 0.000 0.000 1.24 Clear
04/18/2019 04:22 AM x x x x x x x 1.12 NW 0.89 W 2.46 NE No 0.000 No Precipitation 04/16/2019 02:59 AM 04/16/2019 03:03 AM 0.000 0.000 0.000 0.000 0.000 1.24 Clear
04/18/2019 04:23 AM x x x x x x x 1.12 W 1.34 W 2.46 NE No 0.000 No Precipitation 04/16/2019 02:59 AM 04/16/2019 03:03 AM 0.000 0.000 0.000 0.000 0.000 1.24 Clear
04/18/2019 04:24 AM x x x x x x x 1.12 W 1.57 NW 2.46 E No 0.000 No Precipitation 04/16/2019 02:59 AM 04/16/2019 03:03 AM 0.000 0.000 0.000 0.000 0.000 1.24 Clear
04/18/2019 04:25 AM x x x x x x x 1.57 NW 1.79 NW 2.46 E No 0.000 No Precipitation 04/16/2019 02:59 AM 04/16/2019 03:03 AM 0.000 0.000 0.000 0.000 0.000 1.24 Clear
04/18/2019 04:26 AM x x x x x x x 1.79 NW 1.79 NW 2.24 NW No 0.000 No Precipitation 04/16/2019 02:59 AM 04/16/2019 03:03 AM 0.000 0.000 0.000 0.000 0.000 1.24 Clear
04/18/2019 04:27 AM x x x x x x x 1.79 NW 1.57 NW 2.24 NW No 0.000 No Precipitation 04/16/2019 02:59 AM 04/16/2019 03:03 AM 0.000 0.000 0.000 0.000 0.000 1.24 Clear
04/18/2019 04:28 AM x x x x x x x 1.57 NW 1.57 NW 2.24 NW No 0.000 No Precipitation 04/16/2019 02:59 AM 04/16/2019 03:03 AM 0.000 0.000 0.000 0.000 0.000 1.24 Clear
04/18/2019 04:29 AM x x x x x x x 1.34 NW 0.45 N 2.24 NW No 0.000 No Precipitation 04/16/2019 02:59 AM 04/16/2019 03:03 AM 0.000 0.000 0.000 0.000 0.000 1.24 Clear
04/18/2019 04:30 AM x x x x x x x 1.12 NW 0.89 N 2.24 NW No 0.000 No Precipitation 04/16/2019 02:59 AM 04/16/2019 03:03 AM 0.000 0.000 0.000 0.000 0.000 1.24 Clear
04/18/2019 04:31 AM x x x x x x x 0.89 N 0.45 N 2.24 NW No 0.000 No Precipitation 04/16/2019 02:59 AM 04/16/2019 03:03 AM 0.000 0.000 0.000 0.000 0.000 1.24 Clear
04/18/2019 04:32 AM x x x x x x x 0.67 N 0.22 N 2.24 NW No 0.000 No Precipitation 04/16/2019 02:59 AM 04/16/2019 03:03 AM 0.000 0.000 0.000 0.000 0.000 1.24 Clear
04/18/2019 04:33 AM x x x x x x x 0.45 NE 0.89 NE 2.24 NW No 0.000 No Precipitation 04/16/2019 02:59 AM 04/16/2019 03:03 AM 0.000 0.000 0.000 0.000 0.000 1.24 Clear
04/18/2019 04:34 AM x x x x x x x 0.89 N 1.12 NW 2.24 NW No 0.000 No Precipitation 04/16/2019 02:59 AM 04/16/2019 03:03 AM 0.000 0.000 0.000 0.000 0.000 1.24 Clear
04/18/2019 04:35 AM x x x x x x x 0.89 NW 0.45 NW 2.01 NW No 0.000 No Precipitation 04/16/2019 02:59 AM 04/16/2019 03:03 AM 0.000 0.000 0.000 0.000 0.000 1.24 Clear
04/18/2019 04:36 AM x x x x x x x 0.89 NW 1.57 NE 2.91 N No 0.000 No Precipitation 04/16/2019 02:59 AM 04/16/2019 03:03 AM 0.000 0.000 0.000 0.000 0.000 1.24 Clear
04/18/2019 04:37 AM x x x x x x x 1.57 NE 1.79 E 2.91 N No 0.000 No Precipitation 04/16/2019 02:59 AM 04/16/2019 03:03 AM 0.000 0.000 0.000 0.000 0.000 1.24 Clear
04/18/2019 04:38 AM x x x x x x x 2.01 E 2.46 E 3.36 E No 0.000 No Precipitation 04/16/2019 02:59 AM 04/16/2019 03:03 AM 0.000 0.000 0.000 0.000 0.000 1.24 Clear
04/18/2019 04:39 AM x x x x x x x 2.01 E 2.01 E 3.36 E No 0.000 No Precipitation 04/16/2019 02:59 AM 04/16/2019 03:03 AM 0.000 0.000 0.000 0.000 0.000 1.24 Clear
04/18/2019 04:40 AM x x x x x x x 2.24 NE 2.68 NE 3.36 E No 0.000 No Precipitation 04/16/2019 02:59 AM 04/16/2019 03:03 AM 0.000 0.000 0.000 0.000 0.000 1.24 Clear
04/18/2019 04:41 AM x x x x x x x 2.46 NE 2.68 E 4.03 E No 0.000 No Precipitation 04/16/2019 02:59 AM 04/16/2019 03:03 AM 0.000 0.000 0.000 0.000 0.000 1.24 Clear
04/18/2019 04:42 AM x x x x x x x 2.68 NE 2.68 NE 4.25 E No 0.000 No Precipitation 04/16/2019 02:59 AM 04/16/2019 03:03 AM 0.000 0.000 0.000 0.000 0.000 1.24 Clear
04/18/2019 04:43 AM x x x x x x x 2.91 E 3.36 E 4.25 E No 0.000 No Precipitation 04/16/2019 02:59 AM 04/16/2019 03:03 AM 0.000 0.000 0.000 0.000 0.000 1.24 Clear
04/18/2019 04:44 AM x x x x x x x 3.13 E 2.46 NE 4.25 E No 0.000 No Precipitation 04/16/2019 02:59 AM 04/16/2019 03:03 AM 0.000 0.000 0.000 0.000 0.000 1.24 Clear
04/18/2019 04:45 AM x x x x x x x 2.91 E 1.57 E 4.25 NE No 0.000 No Precipitation 04/16/2019 02:59 AM 04/16/2019 03:03 AM 0.000 0.000 0.000 0.000 0.000 1.24 Clear
04/18/2019 04:46 AM x x x x x x x 2.68 E 2.24 E 4.25 NE No 0.000 No Precipitation 04/16/2019 02:59 AM 04/16/2019 03:03 AM 0.000 0.000 0.000 0.000 0.000 1.24 Clear
04/18/2019 04:47 AM x x x x x x x 2.24 E 1.57 SE 4.25 NE No 0.000 No Precipitation 04/16/2019 02:59 AM 04/16/2019 03:03 AM 0.000 0.000 0.000 0.000 0.000 1.24 Clear
04/18/2019 04:48 AM x x x x x x x 2.24 E 2.46 SE 4.25 NE No 0.000 No Precipitation 04/16/2019 02:59 AM 04/16/2019 03:03 AM 0.000 0.000 0.000 0.000 0.000 1.24 Clear
04/18/2019 04:49 AM x x x x x x x 2.46 E 2.68 E 4.25 NE No 0.000 No Precipitation 04/16/2019 02:59 AM 04/16/2019 03:03 AM 0.000 0.000 0.000 0.000 0.000 1.24 Clear
04/18/2019 04:50 AM x x x x x x x 2.46 E 2.91 SE 4.25 NE No 0.000 No Precipitation 04/16/2019 02:59 AM 04/16/2019 03:03 AM 0.000 0.000 0.000 0.000 0.000 1.24 Clear
04/18/2019 04:51 AM x x x x x x x 2.46 E 3.58 NE 4.25 NE No 0.000 No Precipitation 04/16/2019 02:59 AM 04/16/2019 03:03 AM 0.000 0.000 0.000 0.000 0.000 1.24 Clear
04/18/2019 04:52 AM x x x x x x x 2.24 E 2.01 E 4.25 NE No 0.000 No Precipitation 04/16/2019 02:59 AM 04/16/2019 03:03 AM 0.000 0.000 0.000 0.000 0.000 1.24 Clear
04/18/2019 04:53 AM x x x x x x x 2.24 E 3.36 E 4.25 NE No 0.000 No Precipitation 04/16/2019 02:59 AM 04/16/2019 03:03 AM 0.000 0.000 0.000 0.000 0.000 1.24 Clear
04/18/2019 04:54 AM x x x x x x x 2.46 E 1.79 E 4.25 E No 0.000 No Precipitation 04/16/2019 02:59 AM 04/16/2019 03:03 AM 0.000 0.000 0.000 0.000 0.000 1.24 Clear
04/18/2019 04:55 AM x x x x x x x 2.46 E 2.46 E 4.25 E No 0.000 No Precipitation 04/16/2019 02:59 AM 04/16/2019 03:03 AM 0.000 0.000 0.000 0.000 0.000 1.24 Clear
04/18/2019 04:56 AM x x x x x x x 2.24 E 2.24 E 4.25 E No 0.000 No Precipitation 04/16/2019 02:59 AM 04/16/2019 03:03 AM 0.000 0.000 0.000 0.000 0.000 1.24 Clear
04/18/2019 04:57 AM x x x x x x x 2.24 E 2.24 E 4.25 E No 0.000 No Precipitation 04/16/2019 02:59 AM 04/16/2019 03:03 AM 0.000 0.000 0.000 0.000 0.000 1.24 Clear
04/18/2019 04:58 AM x x x x x x x 2.24 E 2.24 E 3.80 E No 0.000 No Precipitation 04/16/2019 02:59 AM 04/16/2019 03:03 AM 0.000 0.000 0.000 0.000 0.000 1.24 Clear
04/18/2019 05:00 AM x x x x x x x 2.46 E 2.91 E 4.03 E No 0.000 No Precipitation 04/16/2019 02:59 AM 04/16/2019 03:03 AM 0.000 0.000 0.000 0.000 0.000 1.24 Clear
04/18/2019 05:01 AM x x x x x x x 2.91 E 2.91 E 4.03 E No 0.000 No Precipitation 04/16/2019 02:59 AM 04/16/2019 03:03 AM 0.000 0.000 0.000 0.000 0.000 1.24 Clear
04/18/2019 05:02 AM x x x x x x x 3.13 E 2.91 E 4.03 E No 0.000 No Precipitation 04/16/2019 02:59 AM 04/16/2019 03:03 AM 0.000 0.000 0.000 0.000 0.000 1.24 Clear
04/18/2019 05:03 AM x x x x x x x 2.91 E 2.91 E 4.03 E No 0.000 No Precipitation 04/16/2019 02:59 AM 04/16/2019 03:03 AM 0.000 0.000 0.000 0.000 0.000 1.24 Clear
04/18/2019 05:04 AM x x x x x x x 2.68 E 2.46 E 4.03 E No 0.000 No Precipitation 04/16/2019 02:59 AM 04/16/2019 03:03 AM 0.000 0.000 0.000 0.000 0.000 1.24 Clear
04/18/2019 05:05 AM x x x x x x x 2.68 E 2.24 E 4.03 E No 0.000 No Precipitation 04/16/2019 02:59 AM 04/16/2019 03:03 AM 0.000 0.000 0.000 0.000 0.000 1.24 Clear
04/18/2019 05:06 AM x x x x x x x 2.46 E 2.46 E 4.03 E No 0.000 No Precipitation 04/16/2019 02:59 AM 04/16/2019 03:03 AM 0.000 0.000 0.000 0.000 0.000 1.24 Clear
04/18/2019 05:07 AM x x x x x x x 1.79 E 1.57 E 4.03 E No 0.000 No Precipitation 04/16/2019 02:59 AM 04/16/2019 03:03 AM 0.000 0.000 0.000 0.000 0.000 1.24 Clear
04/18/2019 05:08 AM x x x x x x x 1.57 E 2.24 E 4.03 E No 0.000 No Precipitation 04/16/2019 02:59 AM 04/16/2019 03:03 AM 0.000 0.000 0.000 0.000 0.000 1.24 Clear
04/18/2019 05:09 AM x x x x x x x 2.01 E 1.34 SE 4.03 E No 0.000 No Precipitation 04/16/2019 02:59 AM 04/16/2019 03:03 AM 0.000 0.000 0.000 0.000 0.000 1.24 Clear
04/18/2019 05:10 AM x x x x x x x 2.01 E 2.46 E 4.03 E No 0.000 No Precipitation 04/16/2019 02:59 AM 04/16/2019 03:03 AM 0.000 0.000 0.000 0.000 0.000 1.24 Clear
04/18/2019 05:11 AM x x x x x x x 2.01 E 2.46 E 4.03 E No 0.000 No Precipitation 04/16/2019 02:59 AM 04/16/2019 03:03 AM 0.000 0.000 0.000 0.000 0.000 1.24 Clear
04/18/2019 05:12 AM x x x x x x x 2.01 E 2.01 E 3.80 E No 0.000 No Precipitation 04/16/2019 02:59 AM 04/16/2019 03:03 AM 0.000 0.000 0.000 0.000 0.000 1.24 Clear
04/18/2019 05:13 AM x x x x x x x 2.46 E 1.34 NE 3.80 E No 0.000 No Precipitation 04/16/2019 02:59 AM 04/16/2019 03:03 AM 0.000 0.000 0.000 0.000 0.000 1.24 Clear
04/18/2019 05:14 AM x x x x x x x 2.68 E 2.68 E 3.80 E No 0.000 No Precipitation 04/16/2019 02:59 AM 04/16/2019 03:03 AM 0.000 0.000 0.000 0.000 0.000 1.24 Clear
04/18/2019 05:15 AM x x x x x x x 2.91 E 4.47 E 4.47 E No 0.000 No Precipitation 04/16/2019 02:59 AM 04/16/2019 03:03 AM 0.000 0.000 0.000 0.000 0.000 1.24 Clear
04/18/2019 05:16 AM x x x x x x x 3.13 E 4.25 E 4.47 E No 0.000 No Precipitation 04/16/2019 02:59 AM 04/16/2019 03:03 AM 0.000 0.000 0.000 0.000 0.000 1.24 Clear
04/18/2019 05:17 AM x x x x x x x 3.36 E 4.03 E 4.92 E No 0.000 No Precipitation 04/16/2019 02:59 AM 04/16/2019 03:03 AM 0.000 0.000 0.000 0.000 0.000 1.24 Clear
04/18/2019 05:18 AM x x x x x x x 3.80 E 4.03 E 4.92 E No 0.000 No Precipitation 04/16/2019 02:59 AM 04/16/2019 03:03 AM 0.000 0.000 0.000 0.000 0.000 1.24 Clear
04/18/2019 05:19 AM x x x x x x x 3.80 E 5.14 E 5.59 E No 0.000 No Precipitation 04/16/2019 02:59 AM 04/16/2019 03:03 AM 0.000 0.000 0.000 0.000 0.000 1.24 Clear
04/18/2019 05:20 AM x x x x x x x 3.80 E 3.58 E 5.59 E No 0.000 No Precipitation 04/16/2019 02:59 AM 04/16/2019 03:03 AM 0.000 0.000 0.000 0.000 0.000 1.24 Clear
04/18/2019 05:21 AM x x x x x x x 3.36 E 3.13 E 5.59 E No 0.000 No Precipitation 04/16/2019 02:59 AM 04/16/2019 03:03 AM 0.000 0.000 0.000 0.000 0.000 1.24 Clear
04/18/2019 05:22 AM x x x x x x x 3.58 E 3.58 E 5.59 E No 0.000 No Precipitation 04/16/2019 02:59 AM 04/16/2019 03:03 AM 0.000 0.000 0.000 0.000 0.000 1.24 Clear
04/18/2019 05:23 AM x x x x x x x 3.36 E 2.46 E 5.59 E No 0.000 No Precipitation 04/16/2019 02:59 AM 04/16/2019 03:03 AM 0.000 0.000 0.000 0.000 0.000 1.24 Clear
04/18/2019 05:24 AM x x x x x x x 3.36 E 3.13 E 5.59 E No 0.000 No Precipitation 04/16/2019 02:59 AM 04/16/2019 03:03 AM 0.000 0.000 0.000 0.000 0.000 1.24 Clear
04/18/2019 05:25 AM x x x x x x x 3.58 E 3.13 E 5.59 E No 0.000 No Precipitation 04/16/2019 02:59 AM 04/16/2019 03:03 AM 0.000 0.000 0.000 0.000 0.000 1.24 Clear
04/18/2019 05:26 AM x x x x x x x 3.36 E 2.91 E 5.59 E No 0.000 No Precipitation 04/16/2019 02:59 AM 04/16/2019 03:03 AM 0.000 0.000 0.000 0.000 0.000 1.24 Clear
04/18/2019 05:27 AM x x x x x x x 2.91 E 2.01 NE 5.59 E No 0.000 No Precipitation 04/16/2019 02:59 AM 04/16/2019 03:03 AM 0.000 0.000 0.000 0.000 0.000 1.24 Clear
04/18/2019 05:28 AM x x x x x x x 2.46 E 1.34 SE 5.59 E No 0.000 No Precipitation 04/16/2019 02:59 AM 04/16/2019 03:03 AM 0.000 0.000 0.000 0.000 0.000 1.24 Clear
04/18/2019 05:29 AM x x x x x x x 2.68 E 2.68 E 4.92 E No 0.000 No Precipitation 04/16/2019 02:59 AM 04/16/2019 03:03 AM 0.000 0.000 0.000 0.000 0.000 1.24 Clear
04/18/2019 05:30 AM x x x x x x x 2.68 E 3.13 E 4.92 E No 0.000 No Precipitation 04/16/2019 02:59 AM 04/16/2019 03:03 AM 0.000 0.000 0.000 0.000 0.000 1.24 Clear
04/18/2019 05:31 AM x x x x x x x 2.91 E 2.24 NE 4.92 E No 0.000 No Precipitation 04/16/2019 02:59 AM 04/16/2019 03:03 AM 0.000 0.000 0.000 0.000 0.000 1.24 Clear
04/18/2019 05:32 AM x x x x x x x 3.13 E 3.36 E 4.92 E No 0.000 No Precipitation 04/16/2019 02:59 AM 04/16/2019 03:03 AM 0.000 0.000 0.000 0.000 0.000 1.24 Clear
04/18/2019 05:33 AM x x x x x x x 3.36 E 2.01 E 4.92 E No 0.000 No Precipitation 04/16/2019 02:59 AM 04/16/2019 03:03 AM 0.000 0.000 0.000 0.000 0.000 1.24 Clear
04/18/2019 05:34 AM x x x x x x x 3.36 E 2.91 E 4.92 E No 0.000 No Precipitation 04/16/2019 02:59 AM 04/16/2019 03:03 AM 0.000 0.000 0.000 0.000 0.000 1.24 Clear
04/18/2019 05:35 AM x x x x x x x 3.13 E 3.80 E 4.92 E No 0.000 No Precipitation 04/16/2019 02:59 AM 04/16/2019 03:03 AM 0.000 0.000 0.000 0.000 0.000 1.24 Clear
04/18/2019 05:36 AM x x x x x x x 3.58 E 4.03 E 4.92 E No 0.000 No Precipitation 04/16/2019 02:59 AM 04/16/2019 03:03 AM 0.000 0.000 0.000 0.000 0.000 1.24 Clear
04/18/2019 05:37 AM x x x x x x x 4.03 E 4.03 NE 5.37 E No 0.000 No Precipitation 04/16/2019 02:59 AM 04/16/2019 03:03 AM 0.000 0.000 0.000 0.000 0.000 1.24 Clear
04/18/2019 05:38 AM x x x x x x x 3.80 E 1.79 E 5.37 E No 0.000 No Precipitation 04/16/2019 02:59 AM 04/16/2019 03:03 AM 0.000 0.000 0.000 0.000 0.000 1.24 Clear
04/18/2019 05:39 AM x x x x x x x 3.80 E 4.03 E 5.82 E No 0.000 No Precipitation 04/16/2019 02:59 AM 04/16/2019 03:03 AM 0.000 0.000 0.000 0.000 0.000 1.24 Clear
04/18/2019 05:40 AM x x x x x x x 4.47 E 5.14 NE 5.82 E No 0.000 No Precipitation 04/16/2019 02:59 AM 04/16/2019 03:03 AM 0.000 0.000 0.000 0.000 0.000 1.24 Clear
04/18/2019 05:41 AM x x x x x x x 4.70 E 4.03 E 5.82 E No 0.000 No Precipitation 04/16/2019 02:59 AM 04/16/2019 03:03 AM 0.000 0.000 0.000 0.000 0.000 1.24 Clear
04/18/2019 05:42 AM x x x x x x x 4.70 E 5.14 E 5.82 E No 0.000 No Precipitation 04/16/2019 02:59 AM 04/16/2019 03:03 AM 0.000 0.000 0.000 0.000 0.000 1.24 Clear
04/18/2019 05:43 AM x x x x x x x 4.47 E 4.70 NE 5.82 E No 0.000 No Precipitation 04/16/2019 02:59 AM 04/16/2019 03:03 AM 0.000 0.000 0.000 0.000 0.000 1.24 Clear
04/18/2019 05:44 AM x x x x x x x 4.70 E 4.25 NE 6.26 E No 0.000 No Precipitation 04/16/2019 02:59 AM 04/16/2019 03:03 AM 0.000 0.000 0.000 0.000 0.000 1.24 Clear
04/18/2019 05:45 AM x x x x x x x 4.92 NE 5.14 E 6.26 E No 0.000 No Precipitation 04/16/2019 02:59 AM 04/16/2019 03:03 AM 0.000 0.000 0.000 0.000 0.000 1.24 Clear
04/18/2019 05:46 AM x x x x x x x 4.70 NE 4.25 NE 6.26 E No 0.000 No Precipitation 04/16/2019 02:59 AM 04/16/2019 03:03 AM 0.000 0.000 0.000 0.000 0.000 1.24 Clear
04/18/2019 05:47 AM x x x x x x x 4.70 NE 4.92 E 6.26 E No 0.000 No Precipitation 04/16/2019 02:59 AM 04/16/2019 03:03 AM 0.000 0.000 0.000 0.000 0.000 1.24 Clear
04/18/2019 05:48 AM x x x x x x x 4.47 NE 4.47 E 6.26 E No 0.000 No Precipitation 04/16/2019 02:59 AM 04/16/2019 03:03 AM 0.000 0.000 0.000 0.000 0.000 1.24 Clear
04/18/2019 05:49 AM x x x x x x x 4.03 NE 3.80 NE 6.26 E No 0.000 No Precipitation 04/16/2019 02:59 AM 04/16/2019 03:03 AM 0.000 0.000 0.000 0.000 0.000 1.24 Clear
04/18/2019 05:50 AM x x x x x x x 4.25 NE 5.59 NE 6.26 E No 0.000 No Precipitation 04/16/2019 02:59 AM 04/16/2019 03:03 AM 0.000 0.000 0.000 0.000 0.000 1.24 Clear
04/18/2019 05:51 AM x x x x x x x 4.47 NE 4.03 NE 6.26 E No 0.000 No Precipitation 04/16/2019 02:59 AM 04/16/2019 03:03 AM 0.000 0.000 0.000 0.000 0.000 1.24 Clear
04/18/2019 05:52 AM x x x x x x x 4.25 NE 3.36 NE 6.26 E No 0.000 No Precipitation 04/16/2019 02:59 AM 04/16/2019 03:03 AM 0.000 0.000 0.000 0.000 0.000 1.24 Clear
04/18/2019 05:53 AM x x x x x x x 4.03 NE 3.58 NE 6.26 E No 0.000 No Precipitation 04/16/2019 02:59 AM 04/16/2019 03:03 AM 0.000 0.000 0.000 0.000 0.000 1.24 Clear
04/18/2019 05:54 AM x x x x x x x 4.25 NE 4.25 E 5.82 E No 0.000 No Precipitation 04/16/2019 02:59 AM 04/16/2019 03:03 AM 0.000 0.000 0.000 0.000 0.000 1.24 Clear
04/18/2019 05:55 AM x x x x x x x 4.47 NE 3.13 NE 5.82 NE No 0.000 No Precipitation 04/16/2019 02:59 AM 04/16/2019 03:03 AM 0.000 0.000 0.000 0.000 0.000 1.24 Clear
04/18/2019 05:56 AM x x x x x x x 4.03 NE 3.36 E 5.82 NE No 0.000 No Precipitation 04/16/2019 02:59 AM 04/16/2019 03:03 AM 0.000 0.000 0.000 0.000 0.000 1.24 Clear
04/18/2019 05:57 AM x x x x x x x 3.80 NE 3.80 NE 5.82 NE No 0.000 No Precipitation 04/16/2019 02:59 AM 04/16/2019 03:03 AM 0.000 0.000 0.000 0.000 0.000 1.24 Clear
04/18/2019 05:58 AM x x x x x x x 3.58 NE 3.13 NE 5.82 NE No 0.000 No Precipitation 04/16/2019 02:59 AM 04/16/2019 03:03 AM 0.000 0.000 0.000 0.000 0.000 1.24 Clear
04/18/2019 05:59 AM x x x x x x x 3.36 NE 2.01 E 5.82 NE No 0.000 No Precipitation 04/16/2019 02:59 AM 04/16/2019 03:03 AM 0.000 0.000 0.000 0.000 0.000 1.24 Clear
04/18/2019 06:00 AM x x x x x x x 2.91 NE 2.91 E 5.82 NE No 0.000 No Precipitation 04/16/2019 02:59 AM 04/16/2019 03:03 AM 0.000 0.000 0.000 0.000 0.000 1.24 Clear
04/18/2019 06:01 AM x x x x x x x 2.68 NE 2.46 NE 5.82 NE No 0.000 No Precipitation 04/16/2019 02:59 AM 04/16/2019 03:03 AM 0.000 0.000 0.000 0.000 0.000 1.24 Clear
04/18/2019 06:02 AM x x x x x x x 2.91 NE 3.36 NE 5.82 NE No 0.000 No Precipitation 04/16/2019 02:59 AM 04/16/2019 03:03 AM 0.000 0.000 0.000 0.000 0.000 1.24 Clear
04/18/2019 06:03 AM x x x x x x x 3.36 NE 4.70 NE 5.82 NE No 0.000 No Precipitation 04/16/2019 02:59 AM 04/16/2019 03:03 AM 0.000 0.000 0.000 0.000 0.000 1.24 Clear
04/18/2019 06:04 AM x x x x x x x 3.80 NE 3.36 NE 4.92 E No 0.000 No Precipitation 04/16/2019 02:59 AM 04/16/2019 03:03 AM 0.000 0.000 0.000 0.000 0.000 1.24 Clear
04/18/2019 06:05 AM x x x x x x x 3.36 NE 3.36 NE 4.92 NE No 0.000 No Precipitation 04/16/2019 02:59 AM 04/16/2019 03:03 AM 0.000 0.000 0.000 0.000 0.000 1.24 Clear
04/18/2019 06:06 AM x x x x x x x 3.13 E 3.13 E 4.92 NE No 0.000 No Precipitation 04/16/2019 02:59 AM 04/16/2019 03:03 AM 0.000 0.000 0.000 0.000 0.000 1.24 Clear
04/18/2019 06:07 AM x x x x x x x 3.36 E 2.01 E 4.92 NE No 0.000 No Precipitation 04/16/2019 02:59 AM 04/16/2019 03:03 AM 0.000 0.000 0.000 0.000 0.000 1.24 Clear
04/18/2019 06:08 AM x x x x x x x 3.13 E 2.24 NE 4.92 NE No 0.000 No Precipitation 04/16/2019 02:59 AM 04/16/2019 03:03 AM 0.000 0.000 0.000 0.000 0.000 1.24 Clear
04/18/2019 06:09 AM x x x x x x x 3.36 E 4.47 E 4.92 NE No 0.000 No Precipitation 04/16/2019 02:59 AM 04/16/2019 03:03 AM 0.000 0.000 0.000 0.000 0.000 1.24 Clear
04/18/2019 06:10 AM x x x x x x x 3.58 NE 3.36 NE 4.92 NE No 0.000 No Precipitation 04/16/2019 02:59 AM 04/16/2019 03:03 AM 0.000 0.000 0.000 0.000 0.000 1.24 Clear
04/18/2019 06:11 AM x x x x x x x 3.13 NE 4.03 NE 4.92 NE No 0.000 No Precipitation 04/16/2019 02:59 AM 04/16/2019 03:03 AM 0.000 0.000 0.000 0.000 0.000 1.24 Clear
04/18/2019 06:12 AM x x x x x x x 2.91 NE 3.58 E 4.92 NE No 0.000 No Precipitation 04/16/2019 02:59 AM 04/16/2019 03:03 AM 0.000 0.000 0.000 0.000 0.000 1.24 Clear
04/18/2019 06:13 AM x x x x x x x 2.91 NE 2.68 E 4.92 NE No 0.000 No Precipitation 04/16/2019 02:59 AM 04/16/2019 03:03 AM 0.000 0.000 0.000 0.000 0.000 1.24 Clear
04/18/2019 06:14 AM x x x x x x x 2.91 NE 3.13 E 4.92 NE No 0.000 No Precipitation 04/16/2019 02:59 AM 04/16/2019 03:03 AM 0.000 0.000 0.000 0.000 0.000 1.24 Clear
04/18/2019 06:15 AM x x x x x x x 2.46 NE 2.46 E 4.92 NE No 0.000 No Precipitation 04/16/2019 02:59 AM 04/16/2019 03:03 AM 0.000 0.000 0.000 0.000 0.000 1.24 Clear
04/18/2019 06:16 AM x x x x x x x 2.24 NE 2.01 E 4.47 NE No 0.000 No Precipitation 04/16/2019 02:59 AM 04/16/2019 03:03 AM 0.000 0.000 0.000 0.000 0.000 1.24 Clear
04/18/2019 06:17 AM x x x x x x x 2.91 NE 4.70 NE 4.70 NE No 0.000 No Precipitation 04/16/2019 02:59 AM 04/16/2019 03:03 AM 0.000 0.000 0.000 0.000 0.000 1.24 Clear
04/18/2019 06:18 AM x x x x x x x 3.36 NE 3.13 E 4.70 NE No 0.000 No Precipitation 04/16/2019 02:59 AM 04/16/2019 03:03 AM 0.000 0.000 0.000 0.000 0.000 1.24 Clear
04/18/2019 06:19 AM x x x x x x x 3.36 NE 3.13 NE 4.70 NE No 0.000 No Precipitation 04/16/2019 02:59 AM 04/16/2019 03:03 AM 0.000 0.000 0.000 0.000 0.000 1.24 Clear
04/18/2019 06:20 AM x x x x x x x 3.58 NE 3.80 NE 4.70 NE No 0.000 No Precipitation 04/16/2019 02:59 AM 04/16/2019 03:03 AM 0.000 0.000 0.000 0.000 0.000 1.24 Clear
04/18/2019 06:21 AM x x x x x x x 3.80 NE 4.25 NE 4.70 NE No 0.000 No Precipitation 04/16/2019 02:59 AM 04/16/2019 03:03 AM 0.000 0.000 0.000 0.000 0.000 1.24 Clear
04/18/2019 06:22 AM x x x x x x x 3.58 NE 2.46 NE 4.70 NE No 0.000 No Precipitation 04/16/2019 02:59 AM 04/16/2019 03:03 AM 0.000 0.000 0.000 0.000 0.000 1.24 Clear
04/18/2019 06:23 AM x x x x x x x 3.80 E 5.82 E 5.82 E No 0.000 No Precipitation 04/16/2019 02:59 AM 04/16/2019 03:03 AM 0.000 0.000 0.000 0.000 0.000 1.24 Clear
04/18/2019 06:24 AM x x x x x x x 4.47 E 4.25 E 6.04 E No 0.000 No Precipitation 04/16/2019 02:59 AM 04/16/2019 03:03 AM 0.000 0.000 0.000 0.000 0.000 1.24 Clear
04/18/2019 06:25 AM x x x x x x x 4.47 E 4.03 NE 6.26 E No 0.000 No Precipitation 04/16/2019 02:59 AM 04/16/2019 03:03 AM 0.000 0.000 0.000 0.000 0.000 1.24 Clear
04/18/2019 06:26 AM x x x x x x x 4.03 NE 2.91 E 6.26 E No 0.000 No Precipitation 04/16/2019 02:59 AM 04/16/2019 03:03 AM 0.000 0.000 0.000 0.000 0.000 1.24 Clear
04/18/2019 06:27 AM x x x x x x x 3.80 NE 2.01 E 6.26 E No 0.000 No Precipitation 04/16/2019 02:59 AM 04/16/2019 03:03 AM 0.000 0.000 0.000 0.000 0.000 1.24 Clear
04/18/2019 06:28 AM x x x x x x x 3.58 E 3.80 NE 6.26 E No 0.000 No Precipitation 04/16/2019 02:59 AM 04/16/2019 03:03 AM 0.000 0.000 0.000 0.000 0.000 1.24 Clear
04/18/2019 06:29 AM x x x x x x x 3.36 NE 3.13 NE 6.26 E No 0.000 No Precipitation 04/16/2019 02:59 AM 04/16/2019 03:03 AM 0.000 0.000 0.000 0.000 0.000 1.24 Clear
04/18/2019 06:30 AM x x x x x x x 3.36 NE 2.24 E 6.26 E No 0.000 No Precipitation 04/16/2019 02:59 AM 04/16/2019 03:03 AM 0.000 0.000 0.000 0.000 0.000 1.24 Clear
04/18/2019 06:31 AM x x x x x x x 3.13 NE 2.24 NE 6.26 E No 0.000 No Precipitation 04/16/2019 02:59 AM 04/16/2019 03:03 AM 0.000 0.000 0.000 0.000 0.000 1.24 Clear
04/18/2019 06:32 AM x x x x x x x 3.36 E 3.80 E 6.26 E No 0.000 No Precipitation 04/16/2019 02:59 AM 04/16/2019 03:03 AM 0.000 0.000 0.000 0.000 0.000 1.24 Clear
04/18/2019 06:33 AM x x x x x x x 3.13 E 3.13 E 6.26 E No 0.000 No Precipitation 04/16/2019 02:59 AM 04/16/2019 03:03 AM 0.000 0.000 0.000 0.000 0.000 1.24 Clear
04/18/2019 06:34 AM x x x x x x x 2.91 E 2.24 E 4.92 E No 0.000 No Precipitation 04/16/2019 02:59 AM 04/16/2019 03:03 AM 0.000 0.000 0.000 0.000 0.000 1.24 Clear
04/18/2019 06:35 AM x x x x x x x 2.91 E 3.13 E 4.92 E No 0.000 No Precipitation 04/16/2019 02:59 AM 04/16/2019 03:03 AM 0.000 0.000 0.000 0.000 0.000 1.24 Clear
04/18/2019 06:36 AM x x x x x x x 2.68 E 2.91 E 4.92 E No 0.000 No Precipitation 04/16/2019 02:59 AM 04/16/2019 03:03 AM 0.000 0.000 0.000 0.000 0.000 1.24 Clear
04/18/2019 06:37 AM x x x x x x x 1.79 E 2.24 E 4.92 E No 0.000 No Precipitation 04/16/2019 02:59 AM 04/16/2019 03:03 AM 0.000 0.000 0.000 0.000 0.000 1.24 Clear
04/18/2019 06:38 AM x x x x x x x 1.57 E 1.34 E 4.92 E No 0.000 No Precipitation 04/16/2019 02:59 AM 04/16/2019 03:03 AM 0.000 0.000 0.000 0.000 0.000 1.24 Clear
04/18/2019 06:39 AM x x x x x x x 2.01 E 2.01 E 4.92 E No 0.000 No Precipitation 04/16/2019 02:59 AM 04/16/2019 03:03 AM 0.000 0.000 0.000 0.000 0.000 1.24 Clear
04/18/2019 06:40 AM x x x x x x x 2.24 E 2.01 E 4.92 E No 0.000 No Precipitation 04/16/2019 02:59 AM 04/16/2019 03:03 AM 0.000 0.000 0.000 0.000 0.000 1.24 Clear
04/18/2019 06:41 AM x x x x x x x 2.46 E 2.68 E 4.25 E No 0.000 No Precipitation 04/16/2019 02:59 AM 04/16/2019 03:03 AM 0.000 0.000 0.000 0.000 0.000 1.24 Clear
04/18/2019 06:42 AM x x x x x x x 2.68 E 2.68 E 4.25 E No 0.000 No Precipitation 04/16/2019 02:59 AM 04/16/2019 03:03 AM 0.000 0.000 0.000 0.000 0.000 1.24 Clear
04/18/2019 06:43 AM x x x x x x x 2.46 E 2.24 E 4.03 E No 0.000 No Precipitation 04/16/2019 02:59 AM 04/16/2019 03:03 AM 0.000 0.000 0.000 0.000 0.000 1.24 Clear
04/18/2019 06:44 AM x x x x x x x 2.24 E 2.91 E 4.03 E No 0.000 No Precipitation 04/16/2019 02:59 AM 04/16/2019 03:03 AM 0.000 0.000 0.000 0.000 0.000 1.24 Clear
04/18/2019 06:45 AM x x x x x x x 2.46 E 2.01 E 3.80 E No 0.000 No Precipitation 04/16/2019 02:59 AM 04/16/2019 03:03 AM 0.000 0.000 0.000 0.000 0.000 1.24 Clear
04/18/2019 06:46 AM x x x x x x x 2.24 E 2.91 E 3.58 E No 0.000 No Precipitation 04/16/2019 02:59 AM 04/16/2019 03:03 AM 0.000 0.000 0.000 0.000 0.000 1.24 Clear
04/18/2019 06:48 AM x x x x x x x 2.91 E 3.36 E 3.80 E No 0.000 No Precipitation 04/16/2019 02:59 AM 04/16/2019 03:03 AM 0.000 0.000 0.000 0.000 0.000 1.24 Clear
04/18/2019 06:49 AM x x x x x x x 2.91 E 3.58 E 3.80 E No 0.000 No Precipitation 04/16/2019 02:59 AM 04/16/2019 03:03 AM 0.000 0.000 0.000 0.000 0.000 1.24 Clear
04/18/2019 06:50 AM x x x x x x x 2.91 E 2.46 E 4.47 NE No 0.000 No Precipitation 04/16/2019 02:59 AM 04/16/2019 03:03 AM 0.000 0.000 0.000 0.000 0.000 1.24 Clear
04/18/2019 06:51 AM x x x x x x x 2.68 E 2.68 E 4.47 NE No 0.000 No Precipitation 04/16/2019 02:59 AM 04/16/2019 03:03 AM 0.000 0.000 0.000 0.000 0.000 1.24 Clear
04/18/2019 06:52 AM x x x x x x x 3.13 E 3.58 E 4.47 NE No 0.000 No Precipitation 04/16/2019 02:59 AM 04/16/2019 03:03 AM 0.000 0.000 0.000 0.000 0.000 1.24 Clear
04/18/2019 06:53 AM x x x x x x x 3.58 E 3.13 E 5.37 E No 0.000 No Precipitation 04/16/2019 02:59 AM 04/16/2019 03:03 AM 0.000 0.000 0.000 0.000 0.000 1.24 Clear
04/18/2019 06:54 AM x x x x x x x 3.13 E 2.24 E 5.37 E No 0.000 No Precipitation 04/16/2019 02:59 AM 04/16/2019 03:03 AM 0.000 0.000 0.000 0.000 0.000 1.24 Clear
04/18/2019 06:55 AM x x x x x x x 3.13 NE 4.25 NE 5.37 E No 0.000 No Precipitation 04/16/2019 02:59 AM 04/16/2019 03:03 AM 0.000 0.000 0.000 0.000 0.000 1.24 Clear
04/18/2019 06:56 AM x x x x x x x 3.58 E 4.70 E 5.37 E No 0.000 No Precipitation 04/16/2019 02:59 AM 04/16/2019 03:03 AM 0.000 0.000 0.000 0.000 0.000 1.24 Clear
04/18/2019 06:57 AM x x x x x x x 3.58 E 3.36 E 5.37 E No 0.000 No Precipitation 04/16/2019 02:59 AM 04/16/2019 03:03 AM 0.000 0.000 0.000 0.000 0.000 1.24 Clear
04/18/2019 06:58 AM x x x x x x x 3.58 E 4.47 E 5.37 E No 0.000 No Precipitation 04/16/2019 02:59 AM 04/16/2019 03:03 AM 0.000 0.000 0.000 0.000 0.000 1.24 Clear
04/18/2019 06:59 AM x x x x x x x 3.58 E 3.58 E 5.37 E No 0.000 No Precipitation 04/16/2019 02:59 AM 04/16/2019 03:03 AM 0.000 0.000 0.000 0.000 0.000 1.24 Clear
04/18/2019 07:00 AM x x x x x x x 3.80 E 4.03 E 5.37 E No 0.000 No Precipitation 04/16/2019 02:59 AM 04/16/2019 03:03 AM 0.000 0.000 0.000 0.000 0.000 1.24 Clear
04/18/2019 07:01 AM x x x x x x x 3.80 E 4.25 E 5.37 E No 0.000 No Precipitation 04/16/2019 02:59 AM 04/16/2019 03:03 AM 0.000 0.000 0.000 0.000 0.000 1.24 Clear
04/18/2019 07:02 AM x x x x x x x 3.80 E 3.58 E 4.92 E No 0.000 No Precipitation 04/16/2019 02:59 AM 04/16/2019 03:03 AM 0.000 0.000 0.000 0.000 0.000 1.24 Clear
04/18/2019 07:03 AM x x x x x x x 3.58 E 3.36 E 4.92 E No 0.000 No Precipitation 04/16/2019 02:59 AM 04/16/2019 03:03 AM 0.000 0.000 0.000 0.000 0.000 1.24 Clear
04/18/2019 07:04 AM x x x x x x x 3.80 E 3.80 E 4.92 E No 0.000 No Precipitation 04/16/2019 02:59 AM 04/16/2019 03:03 AM 0.000 0.000 0.000 0.000 0.000 1.24 Clear
04/18/2019 07:05 AM x x x x x x x 3.80 E 2.68 E 4.92 E No 0.000 No Precipitation 04/16/2019 02:59 AM 04/16/2019 03:03 AM 0.000 0.000 0.000 0.000 0.000 1.24 Clear
04/18/2019 07:06 AM x x x x x x x 3.80 E 4.25 E 5.14 NE No 0.000 No Precipitation 04/16/2019 02:59 AM 04/16/2019 03:03 AM 0.000 0.000 0.000 0.000 0.000 1.24 Clear
04/18/2019 07:07 AM x x x x x x x 4.25 E 4.70 E 5.14 NE No 0.000 No Precipitation 04/16/2019 02:59 AM 04/16/2019 03:03 AM 0.000 0.000 0.000 0.000 0.000 1.24 Clear
04/18/2019 07:08 AM x x x x x x x 3.80 E 4.03 E 5.14 NE No 0.000 No Precipitation 04/16/2019 02:59 AM 04/16/2019 03:03 AM 0.000 0.000 0.000 0.000 0.000 1.24 Clear
04/18/2019 07:09 AM x x x x x x x 3.58 E 4.70 E 5.14 NE No 0.000 No Precipitation 04/16/2019 02:59 AM 04/16/2019 03:03 AM 0.000 0.000 0.000 0.000 0.000 1.24 Clear
04/18/2019 07:10 AM x x x x x x x 3.36 E 4.03 E 5.14 NE No 0.000 No Precipitation 04/16/2019 02:59 AM 04/16/2019 03:03 AM 0.000 0.000 0.000 0.000 0.000 1.24 Clear
04/18/2019 07:11 AM x x x x x x x 3.13 E 4.47 E 5.14 NE No 0.000 No Precipitation 04/16/2019 02:59 AM 04/16/2019 03:03 AM 0.000 0.000 0.000 0.000 0.000 1.24 Clear
04/18/2019 07:12 AM x x x x x x x 3.13 E 4.03 NE 5.14 NE No 0.000 No Precipitation 04/16/2019 02:59 AM 04/16/2019 03:03 AM 0.000 0.000 0.000 0.000 0.000 1.24 Clear
04/18/2019 07:13 AM x x x x x x x 3.13 NE 3.13 E 5.14 NE No 0.000 No Precipitation 04/16/2019 02:59 AM 04/16/2019 03:03 AM 0.000 0.000 0.000 0.000 0.000 1.24 Clear
04/18/2019 07:14 AM x x x x x x x 3.13 NE 3.58 E 5.14 NE No 0.000 No Precipitation 04/16/2019 02:59 AM 04/16/2019 03:03 AM 0.000 0.000 0.000 0.000 0.000 1.24 Clear
04/18/2019 07:15 AM x x x x x x x 3.13 NE 2.24 NE 5.14 NE No 0.000 No Precipitation 04/16/2019 02:59 AM 04/16/2019 03:03 AM 0.000 0.000 0.000 0.000 0.000 1.24 Clear
04/18/2019 07:16 AM x x x x x x x 2.91 NE 4.03 E 5.14 NE No 0.000 No Precipitation 04/16/2019 02:59 AM 04/16/2019 03:03 AM 0.000 0.000 0.000 0.000 0.000 1.24 Clear
04/18/2019 07:17 AM x x x x x x x 3.13 E 2.91 E 6.26 E No 0.000 No Precipitation 04/16/2019 02:59 AM 04/16/2019 03:03 AM 0.000 0.000 0.000 0.000 0.000 1.24 Clear
04/18/2019 07:18 AM x x x x x x x 3.13 E 1.79 NE 6.26 E No 0.000 No Precipitation 04/16/2019 02:59 AM 04/16/2019 03:03 AM 0.000 0.000 0.000 0.000 0.000 1.24 Clear
04/18/2019 07:19 AM x x x x x x x 2.24 NE 2.01 NE 6.26 E No 0.000 No Precipitation 04/16/2019 02:59 AM 04/16/2019 03:03 AM 0.000 0.000 0.000 0.000 0.000 1.24 Clear
04/18/2019 07:20 AM x x x x x x x 2.01 NE 1.79 NE 6.26 E No 0.000 No Precipitation 04/16/2019 02:59 AM 04/16/2019 03:03 AM 0.000 0.000 0.000 0.000 0.000 1.24 Clear
04/18/2019 07:21 AM x x x x x x x 1.79 NE 2.46 NE 6.26 E No 0.000 No Precipitation 04/16/2019 02:59 AM 04/16/2019 03:03 AM 0.000 0.000 0.000 0.000 0.000 1.24 Clear
04/18/2019 07:22 AM x x x x x x x 1.79 E 1.79 E 6.26 E No 0.000 No Precipitation 04/16/2019 02:59 AM 04/16/2019 03:03 AM 0.000 0.000 0.000 0.000 0.000 1.24 Clear
04/18/2019 07:23 AM x x x x x x x 2.01 E 2.68 E 6.26 E No 0.000 No Precipitation 04/16/2019 02:59 AM 04/16/2019 03:03 AM 0.000 0.000 0.000 0.000 0.000 1.24 Clear
04/18/2019 07:24 AM x x x x x x x 2.46 E 2.91 E 6.26 E No 0.000 No Precipitation 04/16/2019 02:59 AM 04/16/2019 03:03 AM 0.000 0.000 0.000 0.000 0.000 1.24 Clear
04/18/2019 07:25 AM x x x x x x x 2.24 E 1.12 NE 6.26 E No 0.000 No Precipitation 04/16/2019 02:59 AM 04/16/2019 03:03 AM 0.000 0.000 0.000 0.000 0.000 1.24 Clear
04/18/2019 07:26 AM x x x x x x x 1.79 E 2.24 NE 4.47 E No 0.000 No Precipitation 04/16/2019 02:59 AM 04/16/2019 03:03 AM 0.000 0.000 0.000 0.000 0.000 1.24 Clear
04/18/2019 07:27 AM x x x x x x x 1.57 NE 1.57 SE 3.36 E No 0.000 No Precipitation 04/16/2019 02:59 AM 04/16/2019 03:03 AM 0.000 0.000 0.000 0.000 0.000 1.24 Clear
04/18/2019 07:28 AM x x x x x x x 1.57 E 2.24 E 3.36 E No 0.000 No Precipitation 04/16/2019 02:59 AM 04/16/2019 03:03 AM 0.000 0.000 0.000 0.000 0.000 1.24 Clear
04/18/2019 07:29 AM x x x x x x x 2.24 E 3.36 W 4.70 E No 0.000 No Precipitation 04/16/2019 02:59 AM 04/16/2019 03:03 AM 0.000 0.000 0.000 0.000 0.000 1.24 Clear
04/18/2019 07:30 AM x x x x x x x 2.46 E 2.24 E 4.70 E No 0.000 No Precipitation 04/16/2019 02:59 AM 04/16/2019 03:03 AM 0.000 0.000 0.000 0.000 0.000 1.24 Clear
04/18/2019 07:31 AM x x x x x x x 1.79 NE 1.57 NE 4.70 E No 0.000 No Precipitation 04/16/2019 02:59 AM 04/16/2019 03:03 AM 0.000 0.000 0.000 0.000 0.000 1.24 Clear
04/18/2019 07:32 AM x x x x x x x 1.34 NE 1.34 SE 4.70 E No 0.000 No Precipitation 04/16/2019 02:59 AM 04/16/2019 03:03 AM 0.000 0.000 0.000 0.000 0.000 1.24 Clear
04/18/2019 07:33 AM x x x x x x x 0.89 SE 0.45 W 4.70 E No 0.000 No Precipitation 04/16/2019 02:59 AM 04/16/2019 03:03 AM 0.000 0.000 0.000 0.000 0.000 1.24 Clear
04/18/2019 07:34 AM x x x x x x x 1.12 E 1.34 E 4.70 E No 0.000 No Precipitation 04/16/2019 02:59 AM 04/16/2019 03:03 AM 0.000 0.000 0.000 0.000 0.000 1.24 Clear
04/18/2019 07:35 AM x x x x x x x 1.12 E 1.12 NW 4.70 E No 0.000 No Precipitation 04/16/2019 02:59 AM 04/16/2019 03:03 AM 0.000 0.000 0.000 0.000 0.000 1.24 Clear
04/18/2019 07:36 AM x x x x x x x 1.12 N 1.12 NE 4.70 E No 0.000 No Precipitation 04/16/2019 02:59 AM 04/16/2019 03:03 AM 0.000 0.000 0.000 0.000 0.000 1.24 Clear
04/18/2019 07:37 AM x x x x x x x 2.01 N 3.13 NW 4.70 E No 0.000 No Precipitation 04/16/2019 02:59 AM 04/16/2019 03:03 AM 0.000 0.000 0.000 0.000 0.000 1.24 Clear
04/18/2019 07:38 AM x x x x x x x 2.46 N 1.34 N 4.70 E No 0.000 No Precipitation 04/16/2019 02:59 AM 04/16/2019 03:03 AM 0.000 0.000 0.000 0.000 0.000 1.24 Clear
04/18/2019 07:39 AM x x x x x x x 1.79 N 1.57 NW 4.03 NW No 0.000 No Precipitation 04/16/2019 02:59 AM 04/16/2019 03:03 AM 0.000 0.000 0.000 0.000 0.000 1.24 Clear
04/18/2019 07:40 AM x x x x x x x 1.12 NW 1.34 W 4.03 NW No 0.000 No Precipitation 04/16/2019 02:59 AM 04/16/2019 03:03 AM 0.000 0.000 0.000 0.000 0.000 1.24 Clear
04/18/2019 07:41 AM x x x x x x x 0.89 W 0.67 W 4.03 NW No 0.000 No Precipitation 04/16/2019 02:59 AM 04/16/2019 03:03 AM 0.000 0.000 0.000 0.000 0.000 1.24 Clear
04/18/2019 07:42 AM x x x x x x x 1.12 W 0.89 NW 4.03 NW No 0.000 No Precipitation 04/16/2019 02:59 AM 04/16/2019 03:03 AM 0.000 0.000 0.000 0.000 0.000 1.24 Clear
04/18/2019 07:43 AM x x x x x x x 1.12 W 0.89 N 4.03 NW No 0.000 No Precipitation 04/16/2019 02:59 AM 04/16/2019 03:03 AM 0.000 0.000 0.000 0.000 0.000 1.24 Clear
04/18/2019 07:44 AM x x x x x x x 1.57 N 1.57 N 4.03 NW No 0.000 No Precipitation 04/16/2019 02:59 AM 04/16/2019 03:03 AM 0.000 0.000 0.000 0.000 0.000 1.24 Clear
04/18/2019 07:45 AM x x x x x x x 1.57 N 1.57 N 4.03 NW No 0.000 No Precipitation 04/16/2019 02:59 AM 04/16/2019 03:03 AM 0.000 0.000 0.000 0.000 0.000 1.24 Clear
04/18/2019 07:46 AM x x x x x x x 1.34 NW 0.67 W 3.36 NW No 0.000 No Precipitation 04/16/2019 02:59 AM 04/16/2019 03:03 AM 0.000 0.000 0.000 0.000 0.000 1.24 Clear
04/18/2019 07:47 AM x x x x x x x 1.12 SW 1.12 E 3.36 N No 0.000 No Precipitation 04/16/2019 02:59 AM 04/16/2019 03:03 AM 0.000 0.000 0.000 0.000 0.000 1.24 Clear
04/18/2019 07:48 AM x x x x x x x 1.34 E 1.79 E 3.36 N No 0.000 No Precipitation 04/16/2019 02:59 AM 04/16/2019 03:03 AM 0.000 0.000 0.000 0.000 0.000 1.24 Clear
04/18/2019 07:49 AM x x x x x x x 1.79 E 2.01 E 3.36 N No 0.000 No Precipitation 04/16/2019 02:59 AM 04/16/2019 03:03 AM 0.000 0.000 0.000 0.000 0.000 1.24 Clear
04/18/2019 07:50 AM x x x x x x x 1.79 E 1.34 NE 3.36 N No 0.000 No Precipitation 04/16/2019 02:59 AM 04/16/2019 03:03 AM 0.000 0.000 0.000 0.000 0.000 1.24 Clear
04/18/2019 07:51 AM x x x x x x x 1.34 E 1.57 E 3.36 N No 0.000 No Precipitation 04/16/2019 02:59 AM 04/16/2019 03:03 AM 0.000 0.000 0.000 0.000 0.000 1.24 Clear
04/18/2019 07:52 AM x x x x x x x 1.34 E 1.34 NE 3.36 N No 0.000 No Precipitation 04/16/2019 02:59 AM 04/16/2019 03:03 AM 0.000 0.000 0.000 0.000 0.000 1.24 Clear
04/18/2019 07:53 AM x x x x x x x 1.34 SE 1.34 E 3.36 N No 0.000 No Precipitation 04/16/2019 02:59 AM 04/16/2019 03:03 AM 0.000 0.000 0.000 0.000 0.000 1.24 Clear
04/18/2019 07:54 AM x x x x x x x 1.34 SE 2.24 E 3.13 SE No 0.000 No Precipitation 04/16/2019 02:59 AM 04/16/2019 03:03 AM 0.000 0.000 0.000 0.000 0.000 1.24 Clear
04/18/2019 07:55 AM x x x x x x x 1.57 E 1.12 E 3.13 SE No 0.000 No Precipitation 04/16/2019 02:59 AM 04/16/2019 03:03 AM 0.000 0.000 0.000 0.000 0.000 1.24 Clear
04/18/2019 07:56 AM x x x x x x x 1.79 E 2.46 E 3.13 E No 0.000 No Precipitation 04/16/2019 02:59 AM 04/16/2019 03:03 AM 0.000 0.000 0.000 0.000 0.000 1.24 Clear
04/18/2019 07:57 AM x x x x x x x 2.24 E 2.46 SE 3.36 E No 0.000 No Precipitation 04/16/2019 02:59 AM 04/16/2019 03:03 AM 0.000 0.000 0.000 0.000 0.000 1.24 Clear
04/18/2019 07:58 AM x x x x x x x 2.46 E 2.91 E 4.25 E No 0.000 No Precipitation 04/16/2019 02:59 AM 04/16/2019 03:03 AM 0.000 0.000 0.000 0.000 0.000 1.24 Clear
04/18/2019 07:59 AM x x x x x x x 2.46 E 2.91 E 4.25 E No 0.000 No Precipitation 04/16/2019 02:59 AM 04/16/2019 03:03 AM 0.000 0.000 0.000 0.000 0.000 1.24 Clear
04/18/2019 08:00 AM x x x x x x x 2.24 E 1.12 SE 4.25 E No 0.000 No Precipitation 04/16/2019 02:59 AM 04/16/2019 03:03 AM 0.000 0.000 0.000 0.000 0.000 1.24 Clear
04/18/2019 08:01 AM x x x x x x x 2.01 E 2.68 E 4.25 E No 0.000 No Precipitation 04/16/2019 02:59 AM 04/16/2019 03:03 AM 0.000 0.000 0.000 0.000 0.000 1.24 Clear
04/18/2019 08:02 AM x x x x x x x 2.01 NE 2.24 E 4.25 E No 0.000 No Precipitation 04/16/2019 02:59 AM 04/16/2019 03:03 AM 0.000 0.000 0.000 0.000 0.000 1.24 Clear
04/18/2019 08:03 AM x x x x x x x 2.24 E 3.13 NE 4.25 E No 0.000 No Precipitation 04/16/2019 02:59 AM 04/16/2019 03:03 AM 0.000 0.000 0.000 0.000 0.000 1.24 Clear
04/18/2019 08:04 AM x x x x x x x 2.46 E 2.91 E 4.25 E No 0.000 No Precipitation 04/16/2019 02:59 AM 04/16/2019 03:03 AM 0.000 0.000 0.000 0.000 0.000 1.24 Clear
04/18/2019 08:05 AM x x x x x x x 2.46 E 2.01 E 4.25 E No 0.000 No Precipitation 04/16/2019 02:59 AM 04/16/2019 03:03 AM 0.000 0.000 0.000 0.000 0.000 1.24 Clear
04/18/2019 08:06 AM x x x x x x x 2.68 E 2.01 NE 4.25 E No 0.000 No Precipitation 04/16/2019 02:59 AM 04/16/2019 03:03 AM 0.000 0.000 0.000 0.000 0.000 1.24 Clear
04/18/2019 08:07 AM x x x x x x x 3.13 E 1.79 E 4.70 E No 0.000 No Precipitation 04/16/2019 02:59 AM 04/16/2019 03:03 AM 0.000 0.000 0.000 0.000 0.000 1.24 Clear
04/18/2019 08:08 AM x x x x x x x 2.91 E 2.91 E 4.70 E No 0.000 No Precipitation 04/16/2019 02:59 AM 04/16/2019 03:03 AM 0.000 0.000 0.000 0.000 0.000 1.24 Clear
04/18/2019 08:09 AM x x x x x x x 2.68 E 2.46 E 4.70 E No 0.000 No Precipitation 04/16/2019 02:59 AM 04/16/2019 03:03 AM 0.000 0.000 0.000 0.000 0.000 1.24 Clear
04/18/2019 08:10 AM x x x x x x x 2.91 E 1.79 E 4.70 E No 0.000 No Precipitation 04/16/2019 02:59 AM 04/16/2019 03:03 AM 0.000 0.000 0.000 0.000 0.000 1.24 Clear
04/18/2019 08:11 AM x x x x x x x 2.91 E 2.46 E 4.70 E No 0.000 No Precipitation 04/16/2019 02:59 AM 04/16/2019 03:03 AM 0.000 0.000 0.000 0.000 0.000 1.24 Clear
04/18/2019 08:12 AM x x x x x x x 2.68 E 3.13 E 4.70 E No 0.000 No Precipitation 04/16/2019 02:59 AM 04/16/2019 03:03 AM 0.000 0.000 0.000 0.000 0.000 1.24 Clear
04/18/2019 08:13 AM x x x x x x x 2.46 E 3.80 E 4.70 E No 0.000 No Precipitation 04/16/2019 02:59 AM 04/16/2019 03:03 AM 0.000 0.000 0.000 0.000 0.000 1.24 Clear
04/18/2019 08:14 AM x x x x x x x 2.91 E 2.68 E 4.70 E No 0.000 No Precipitation 04/16/2019 02:59 AM 04/16/2019 03:03 AM 0.000 0.000 0.000 0.000 0.000 1.24 Clear
04/18/2019 08:15 AM x x x x x x x 3.13 E 4.03 E 4.70 E No 0.000 No Precipitation 04/16/2019 02:59 AM 04/16/2019 03:03 AM 0.000 0.000 0.000 0.000 0.000 1.24 Clear
04/18/2019 08:16 AM x x x x x x x 2.91 E 2.01 NE 4.70 E No 0.000 No Precipitation 04/16/2019 02:59 AM 04/16/2019 03:03 AM 0.000 0.000 0.000 0.000 0.000 1.24 Clear
04/18/2019 08:17 AM x x x x x x x 2.24 E 0.67 NW 4.47 E No 0.000 No Precipitation 04/16/2019 02:59 AM 04/16/2019 03:03 AM 0.000 0.000 0.000 0.000 0.000 1.24 Clear
04/18/2019 08:18 AM x x x x x x x 1.79 E 1.12 E 4.47 E No 0.000 No Precipitation 04/16/2019 02:59 AM 04/16/2019 03:03 AM 0.000 0.000 0.000 0.000 0.000 1.24 Clear
04/18/2019 08:19 AM x x x x x x x 1.79 E 2.46 E 4.47 E No 0.000 No Precipitation 04/16/2019 02:59 AM 04/16/2019 03:03 AM 0.000 0.000 0.000 0.000 0.000 1.24 Clear
04/18/2019 08:20 AM x x x x x x x 2.24 E 2.46 N 4.25 E No 0.000 No Precipitation 04/16/2019 02:59 AM 04/16/2019 03:03 AM 0.000 0.000 0.000 0.000 0.000 1.24 Clear
04/18/2019 08:21 AM x x x x x x x 2.24 E 2.68 SE 4.25 E No 0.000 No Precipitation 04/16/2019 02:59 AM 04/16/2019 03:03 AM 0.000 0.000 0.000 0.000 0.000 1.24 Clear
04/18/2019 08:22 AM x x x x x x x 2.24 E 2.46 E 4.25 E No 0.000 No Precipitation 04/16/2019 02:59 AM 04/16/2019 03:03 AM 0.000 0.000 0.000 0.000 0.000 1.24 Clear
04/18/2019 08:23 AM x x x x x x x 2.24 E 2.68 NE 4.25 E No 0.000 No Precipitation 04/16/2019 02:59 AM 04/16/2019 03:03 AM 0.000 0.000 0.000 0.000 0.000 1.24 Clear
04/18/2019 08:24 AM x x x x x x x 2.68 NE 3.36 NE 4.47 E No 0.000 No Precipitation 04/16/2019 02:59 AM 04/16/2019 03:03 AM 0.000 0.000 0.000 0.000 0.000 1.24 Clear
04/18/2019 08:25 AM x x x x x x x 3.13 NE 2.68 NE 4.47 E No 0.000 No Precipitation 04/16/2019 02:59 AM 04/16/2019 03:03 AM 0.000 0.000 0.000 0.000 0.000 1.24 Clear
04/18/2019 08:26 AM x x x x x x x 2.46 NE 1.57 E 4.47 E No 0.000 No Precipitation 04/16/2019 02:59 AM 04/16/2019 03:03 AM 0.000 0.000 0.000 0.000 0.000 1.24 Clear
04/18/2019 08:27 AM x x x x x x x 1.79 E 1.34 NE 4.47 E No 0.000 No Precipitation 04/16/2019 02:59 AM 04/16/2019 03:03 AM 0.000 0.000 0.000 0.000 0.000 1.24 Clear
04/18/2019 08:28 AM x x x x x x x 1.57 E 1.57 E 4.47 E No 0.000 No Precipitation 04/16/2019 02:59 AM 04/16/2019 03:03 AM 0.000 0.000 0.000 0.000 0.000 1.24 Clear
04/18/2019 08:29 AM x x x x x x x 2.01 NE 1.57 N 4.47 E No 0.000 No Precipitation 04/16/2019 02:59 AM 04/16/2019 03:03 AM 0.000 0.000 0.000 0.000 0.000 1.24 Clear
04/18/2019 08:30 AM x x x x x x x 2.24 NE 2.01 E 4.47 E No 0.000 No Precipitation 04/16/2019 02:59 AM 04/16/2019 03:03 AM 0.000 0.000 0.000 0.000 0.000 1.24 Clear
04/18/2019 08:31 AM x x x x x x x 2.24 NE 2.91 NE 4.47 E No 0.000 No Precipitation 04/16/2019 02:59 AM 04/16/2019 03:03 AM 0.000 0.000 0.000 0.000 0.000 1.24 Clear
04/18/2019 08:32 AM x x x x x x x 2.68 NE 3.36 E 4.47 E No 0.000 No Precipitation 04/16/2019 02:59 AM 04/16/2019 03:03 AM 0.000 0.000 0.000 0.000 0.000 1.24 Clear
04/18/2019 08:33 AM x x x x x x x 2.24 E 0.45 NW 4.47 E No 0.000 No Precipitation 04/16/2019 02:59 AM 04/16/2019 03:03 AM 0.000 0.000 0.000 0.000 0.000 1.24 Clear
04/18/2019 08:34 AM x x x x x x x 1.57 SE 0.67 NE 4.25 NE No 0.000 No Precipitation 04/16/2019 02:59 AM 04/16/2019 03:03 AM 0.000 0.000 0.000 0.000 0.000 1.24 Clear
04/18/2019 08:35 AM x x x x x x x 1.12 E 0.67 E 4.25 NE No 0.000 No Precipitation 04/16/2019 02:59 AM 04/16/2019 03:03 AM 0.000 0.000 0.000 0.000 0.000 1.24 Clear
04/18/2019 08:36 AM x x x x x x x 1.34 E 1.79 SE 4.25 NE No 0.000 No Precipitation 04/16/2019 02:59 AM 04/16/2019 03:03 AM 0.000 0.000 0.000 0.000 0.000 1.24 Clear
04/18/2019 08:37 AM x x x x x x x 1.79 E 2.01 E 4.25 NE No 0.000 No Precipitation 04/16/2019 02:59 AM 04/16/2019 03:03 AM 0.000 0.000 0.000 0.000 0.000 1.24 Clear
04/18/2019 08:38 AM x x x x x x x 2.24 E 2.01 E 4.25 NE No 0.000 No Precipitation 04/16/2019 02:59 AM 04/16/2019 03:03 AM 0.000 0.000 0.000 0.000 0.000 1.24 Clear
04/18/2019 08:39 AM x x x x x x x 2.46 NE 2.24 E 4.70 NE No 0.000 No Precipitation 04/16/2019 02:59 AM 04/16/2019 03:03 AM 0.000 0.000 0.000 0.000 0.000 1.24 Clear
04/18/2019 08:40 AM x x x x x x x 2.68 NE 2.24 NE 4.70 NE No 0.000 No Precipitation 04/16/2019 02:59 AM 04/16/2019 03:03 AM 0.000 0.000 0.000 0.000 0.000 1.24 Clear
04/18/2019 08:41 AM x x x x x x x 2.68 E 3.36 E 4.70 E No 0.000 No Precipitation 04/16/2019 02:59 AM 04/16/2019 03:03 AM 0.000 0.000 0.000 0.000 0.000 1.24 Clear
04/18/2019 08:42 AM x x x x x x x 3.36 E 3.13 E 4.70 E No 0.000 No Precipitation 04/16/2019 02:59 AM 04/16/2019 03:03 AM 0.000 0.000 0.000 0.000 0.000 1.24 Clear
04/18/2019 08:43 AM x x x x x x x 2.91 NE 2.91 NE 4.70 E No 0.000 No Precipitation 04/16/2019 02:59 AM 04/16/2019 03:03 AM 0.000 0.000 0.000 0.000 0.000 1.24 Clear
04/18/2019 08:44 AM x x x x x x x 2.46 NE 2.46 NE 4.70 E No 0.000 No Precipitation 04/16/2019 02:59 AM 04/16/2019 03:03 AM 0.000 0.000 0.000 0.000 0.000 1.24 Clear
04/18/2019 08:45 AM x x x x x x x 1.79 E 1.57 E 4.70 E No 0.000 No Precipitation 04/16/2019 02:59 AM 04/16/2019 03:03 AM 0.000 0.000 0.000 0.000 0.000 1.24 Clear
04/18/2019 08:46 AM x x x x x x x 1.57 E 3.13 N 4.70 E No 0.000 No Precipitation 04/16/2019 02:59 AM 04/16/2019 03:03 AM 0.000 0.000 0.000 0.000 0.000 1.24 Clear
04/18/2019 08:47 AM x x x x x x x 2.46 E 1.79 SE 4.70 E No 0.000 No Precipitation 04/16/2019 02:59 AM 04/16/2019 03:03 AM 0.000 0.000 0.000 0.000 0.000 1.24 Clear
04/18/2019 08:48 AM x x x x x x x 2.24 SE 1.57 NE 4.70 E No 0.000 No Precipitation 04/16/2019 02:59 AM 04/16/2019 03:03 AM 0.000 0.000 0.000 0.000 0.000 1.24 Clear
04/18/2019 08:49 AM x x x x x x x 1.34 SE 0.67 S 4.70 E No 0.000 No Precipitation 04/16/2019 02:59 AM 04/16/2019 03:03 AM 0.000 0.000 0.000 0.000 0.000 1.24 Clear
04/18/2019 08:50 AM x x x x x x x 0.89 N 0.45 SW 4.70 E No 0.000 No Precipitation 04/16/2019 02:59 AM 04/16/2019 03:03 AM 0.000 0.000 0.000 0.000 0.000 1.24 Clear
04/18/2019 08:51 AM x x x x x x x 0.89 E 0.45 SW 4.47 E No 0.000 No Precipitation 04/16/2019 02:59 AM 04/16/2019 03:03 AM 0.000 0.000 0.000 0.000 0.000 1.24 Clear
04/18/2019 08:52 AM x x x x x x x 2.01 E 2.91 E 4.92 E No 0.000 No Precipitation 04/16/2019 02:59 AM 04/16/2019 03:03 AM 0.000 0.000 0.000 0.000 0.000 1.24 Clear
04/18/2019 08:53 AM x x x x x x x 3.13 E 4.03 E 4.92 E No 0.000 No Precipitation 04/16/2019 02:59 AM 04/16/2019 03:03 AM 0.000 0.000 0.000 0.000 0.000 1.24 Clear
04/18/2019 08:54 AM x x x x x x x 2.91 E 2.91 E 4.92 E No 0.000 No Precipitation 04/16/2019 02:59 AM 04/16/2019 03:03 AM 0.000 0.000 0.000 0.000 0.000 1.24 Clear
04/18/2019 08:55 AM x x x x x x x 2.24 E 1.79 E 4.92 E No 0.000 No Precipitation 04/16/2019 02:59 AM 04/16/2019 03:03 AM 0.000 0.000 0.000 0.000 0.000 1.24 Clear
04/18/2019 08:56 AM x x x x x x x 2.46 E 4.25 E 4.92 E No 0.000 No Precipitation 04/16/2019 02:59 AM 04/16/2019 03:03 AM 0.000 0.000 0.000 0.000 0.000 1.24 Clear
04/18/2019 08:57 AM x x x x x x x 2.91 NE 2.24 E 4.92 E No 0.000 No Precipitation 04/16/2019 02:59 AM 04/16/2019 03:03 AM 0.000 0.000 0.000 0.000 0.000 1.24 Clear
04/18/2019 08:58 AM x x x x x x x 3.13 NE 2.91 NE 4.92 E No 0.000 No Precipitation 04/16/2019 02:59 AM 04/16/2019 03:03 AM 0.000 0.000 0.000 0.000 0.000 1.24 Clear
04/18/2019 08:59 AM x x x x x x x 3.36 NE 3.36 NE 4.92 NE No 0.000 No Precipitation 04/16/2019 02:59 AM 04/16/2019 03:03 AM 0.000 0.000 0.000 0.000 0.000 1.24 Clear
04/18/2019 09:00 AM x x x x x x x 3.58 NE 3.13 E 5.37 NE No 0.000 No Precipitation 04/16/2019 02:59 AM 04/16/2019 03:03 AM 0.000 0.000 0.000 0.000 0.000 1.24 Clear
04/18/2019 09:01 AM x x x x x x x 3.36 E 2.91 NE 5.37 NE No 0.000 No Precipitation 04/16/2019 02:59 AM 04/16/2019 03:03 AM 0.000 0.000 0.000 0.000 0.000 1.24 Clear
04/18/2019 09:02 AM x x x x x x x 2.91 E 2.68 E 5.37 NE No 0.000 No Precipitation 04/16/2019 02:59 AM 04/16/2019 03:03 AM 0.000 0.000 0.000 0.000 0.000 1.24 Clear
04/18/2019 09:03 AM x x x x x x x 2.68 E 2.68 E 5.37 NE No 0.000 No Precipitation 04/16/2019 02:59 AM 04/16/2019 03:03 AM 0.000 0.000 0.000 0.000 0.000 1.24 Clear
04/18/2019 09:04 AM x x x x x x x 2.91 E 3.36 E 5.37 NE No 0.000 No Precipitation 04/16/2019 02:59 AM 04/16/2019 03:03 AM 0.000 0.000 0.000 0.000 0.000 1.24 Clear
04/18/2019 09:05 AM x x x x x x x 2.68 NE 2.46 NE 5.37 NE No 0.000 No Precipitation 04/16/2019 02:59 AM 04/16/2019 03:03 AM 0.000 0.000 0.000 0.000 0.000 1.24 Clear
04/18/2019 09:06 AM x x x x x x x 2.46 NE 1.57 NE 5.37 NE No 0.000 No Precipitation 04/16/2019 02:59 AM 04/16/2019 03:03 AM 0.000 0.000 0.000 0.000 0.000 1.24 Clear
04/18/2019 09:07 AM x x x x x x x 2.46 E 4.25 E 5.37 NE No 0.000 No Precipitation 04/16/2019 02:59 AM 04/16/2019 03:03 AM 0.000 0.000 0.000 0.000 0.000 1.24 Clear
04/18/2019 09:08 AM x x x x x x x 2.68 E 2.46 E 5.37 NE No 0.000 No Precipitation 04/16/2019 02:59 AM 04/16/2019 03:03 AM 0.000 0.000 0.000 0.000 0.000 1.24 Clear
04/18/2019 09:09 AM x x x x x x x 2.24 E 0.89 W 4.47 E No 0.000 No Precipitation 04/16/2019 02:59 AM 04/16/2019 03:03 AM 0.000 0.000 0.000 0.000 0.000 1.24 Clear
04/18/2019 09:10 AM x x x x x x x 2.01 E 1.57 E 4.47 E No 0.000 No Precipitation 04/16/2019 02:59 AM 04/16/2019 03:03 AM 0.000 0.000 0.000 0.000 0.000 1.24 Clear
04/18/2019 09:11 AM x x x x x x x 2.46 E 2.68 NE 4.47 E No 0.000 No Precipitation 04/16/2019 02:59 AM 04/16/2019 03:03 AM 0.000 0.000 0.000 0.000 0.000 1.24 Clear
04/18/2019 09:12 AM x x x x x x x 2.46 NE 2.24 NE 5.37 NE No 0.000 No Precipitation 04/16/2019 02:59 AM 04/16/2019 03:03 AM 0.000 0.000 0.000 0.000 0.000 1.24 Clear
04/18/2019 09:13 AM x x x x x x x 2.68 NE 3.58 NE 5.37 NE No 0.000 No Precipitation 04/16/2019 02:59 AM 04/16/2019 03:03 AM 0.000 0.000 0.000 0.000 0.000 1.24 Clear
04/18/2019 09:14 AM x x x x x x x 3.13 NE 2.91 E 5.37 NE No 0.000 No Precipitation 04/16/2019 02:59 AM 04/16/2019 03:03 AM 0.000 0.000 0.000 0.000 0.000 1.24 Clear
04/18/2019 09:15 AM x x x x x x x 2.91 NE 1.79 NE 5.37 NE No 0.000 No Precipitation 04/16/2019 02:59 AM 04/16/2019 03:03 AM 0.000 0.000 0.000 0.000 0.000 1.24 Clear
04/18/2019 09:16 AM x x x x x x x 1.79 E 1.12 NW 5.37 NE No 0.000 No Precipitation 04/16/2019 02:59 AM 04/16/2019 03:03 AM 0.000 0.000 0.000 0.000 0.000 1.24 Clear
04/18/2019 09:17 AM x x x x x x x 1.79 NW 2.91 N 5.37 NE No 0.000 No Precipitation 04/16/2019 02:59 AM 04/16/2019 03:03 AM 0.000 0.000 0.000 0.000 0.000 1.24 Clear
04/18/2019 09:18 AM x x x x x x x 2.68 E 3.36 E 5.59 E No 0.000 No Precipitation 04/16/2019 02:59 AM 04/16/2019 03:03 AM 0.000 0.000 0.000 0.000 0.000 1.24 Clear
04/18/2019 09:19 AM x x x x x x x 3.36 E 1.34 SE 5.59 E No 0.000 No Precipitation 04/16/2019 02:59 AM 04/16/2019 03:03 AM 0.000 0.000 0.000 0.000 0.000 1.24 Clear
04/18/2019 09:20 AM x x x x x x x 3.13 E 4.03 NE 5.59 E No 0.000 No Precipitation 04/16/2019 02:59 AM 04/16/2019 03:03 AM 0.000 0.000 0.000 0.000 0.000 1.24 Clear
04/18/2019 09:21 AM x x x x x x x 2.91 E 2.68 E 5.59 E No 0.000 No Precipitation 04/16/2019 02:59 AM 04/16/2019 03:03 AM 0.000 0.000 0.000 0.000 0.000 1.24 Clear
04/18/2019 09:22 AM x x x x x x x 3.36 E 3.58 E 5.59 E No 0.000 No Precipitation 04/16/2019 02:59 AM 04/16/2019 03:03 AM 0.000 0.000 0.000 0.000 0.000 1.24 Clear
04/18/2019 09:23 AM x x x x x x x 3.13 NE 2.01 SE 5.59 E No 0.000 No Precipitation 04/16/2019 02:59 AM 04/16/2019 03:03 AM 0.000 0.000 0.000 0.000 0.000 1.24 Clear
04/18/2019 09:24 AM x x x x x x x 3.13 E 2.91 E 5.59 E No 0.000 No Precipitation 04/16/2019 02:59 AM 04/16/2019 03:03 AM 0.000 0.000 0.000 0.000 0.000 1.24 Clear
04/18/2019 09:25 AM x x x x x x x 3.13 E 2.91 E 5.59 E No 0.000 No Precipitation 04/16/2019 02:59 AM 04/16/2019 03:03 AM 0.000 0.000 0.000 0.000 0.000 1.24 Clear
04/18/2019 09:26 AM x x x x x x x 2.91 E 3.36 E 5.59 E No 0.000 No Precipitation 04/16/2019 02:59 AM 04/16/2019 03:03 AM 0.000 0.000 0.000 0.000 0.000 1.24 Clear
04/18/2019 09:27 AM x x x x x x x 3.13 E 2.91 SE 5.59 E No 0.000 No Precipitation 04/16/2019 02:59 AM 04/16/2019 03:03 AM 0.000 0.000 0.000 0.000 0.000 1.24 Clear
04/18/2019 09:28 AM x x x x x x x 3.13 SE 4.25 SE 4.92 NE No 0.000 No Precipitation 04/16/2019 02:59 AM 04/16/2019 03:03 AM 0.000 0.000 0.000 0.000 0.000 1.24 Clear
04/18/2019 09:29 AM x x x x x x x 3.36 SE 2.91 SE 5.37 SE No 0.000 No Precipitation 04/16/2019 02:59 AM 04/16/2019 03:03 AM 0.000 0.000 0.000 0.000 0.000 1.24 Clear
04/18/2019 09:30 AM x x x x x x x 2.68 SE 2.46 SE 5.37 SE No 0.000 No Precipitation 04/16/2019 02:59 AM 04/16/2019 03:03 AM 0.000 0.000 0.000 0.000 0.000 1.24 Clear
04/18/2019 09:31 AM x x x x x x x 1.79 E 0.67 NE 5.37 SE No 0.000 No Precipitation 04/16/2019 02:59 AM 04/16/2019 03:03 AM 0.000 0.000 0.000 0.000 0.000 1.24 Clear
04/18/2019 09:32 AM x x x x x x x 1.12 E 0.67 NE 5.37 SE No 0.000 No Precipitation 04/16/2019 02:59 AM 04/16/2019 03:03 AM 0.000 0.000 0.000 0.000 0.000 1.24 Clear
04/18/2019 09:33 AM x x x x x x x 1.34 NE 2.24 N 5.37 SE No 0.000 No Precipitation 04/16/2019 02:59 AM 04/16/2019 03:03 AM 0.000 0.000 0.000 0.000 0.000 1.24 Clear
04/18/2019 09:34 AM x x x x x x x 1.57 NE 2.01 NE 5.37 SE No 0.000 No Precipitation 04/16/2019 02:59 AM 04/16/2019 03:03 AM 0.000 0.000 0.000 0.000 0.000 1.24 Clear
04/18/2019 09:35 AM x x x x x x x 1.57 NE 1.12 E 5.37 SE No 0.000 No Precipitation 04/16/2019 02:59 AM 04/16/2019 03:03 AM 0.000 0.000 0.000 0.000 0.000 1.24 Clear
04/18/2019 09:36 AM x x x x x x x 2.24 S 4.03 S 5.37 SE No 0.000 No Precipitation 04/16/2019 02:59 AM 04/16/2019 03:03 AM 0.000 0.000 0.000 0.000 0.000 1.24 Clear
04/18/2019 09:37 AM x x x x x x x 3.58 SE 2.68 S 5.37 SE No 0.000 No Precipitation 04/16/2019 02:59 AM 04/16/2019 03:03 AM 0.000 0.000 0.000 0.000 0.000 1.24 Clear
04/18/2019 09:38 AM x x x x x x x 3.80 S 3.58 S 5.14 S No 0.000 No Precipitation 04/16/2019 02:59 AM 04/16/2019 03:03 AM 0.000 0.000 0.000 0.000 0.000 1.24 Clear
04/18/2019 09:39 AM x x x x x x x 3.58 S 2.46 SE 5.14 S No 0.000 No Precipitation 04/16/2019 02:59 AM 04/16/2019 03:03 AM 0.000 0.000 0.000 0.000 0.000 1.24 Clear
04/18/2019 09:40 AM x x x x x x x 3.13 S 2.91 S 5.14 S No 0.000 No Precipitation 04/16/2019 02:59 AM 04/16/2019 03:03 AM 0.000 0.000 0.000 0.000 0.000 1.24 Clear
04/18/2019 09:41 AM x x x x x x x 2.68 S 3.36 NE 5.14 S No 0.000 No Precipitation 04/16/2019 02:59 AM 04/16/2019 03:03 AM 0.000 0.000 0.000 0.000 0.000 1.24 Clear
04/18/2019 09:43 AM x x x x x x x 2.68 E 4.03 E 5.14 NE No 0.000 No Precipitation 04/16/2019 02:59 AM 04/16/2019 03:03 AM 0.000 0.000 0.000 0.000 0.000 1.24 Clear
04/18/2019 09:44 AM x x x x x x x 2.46 E 2.46 E 5.14 NE No 0.000 No Precipitation 04/16/2019 02:59 AM 04/16/2019 03:03 AM 0.000 0.000 0.000 0.000 0.000 1.24 Clear
04/18/2019 09:45 AM x x x x x x x 2.01 E 2.01 NE 5.14 NE No 0.000 No Precipitation 04/16/2019 02:59 AM 04/16/2019 03:03 AM 0.000 0.000 0.000 0.000 0.000 1.24 Clear
04/18/2019 09:46 AM x x x x x x x 1.12 E 0.45 NE 5.14 NE No 0.000 No Precipitation 04/16/2019 02:59 AM 04/16/2019 03:03 AM 0.000 0.000 0.000 0.000 0.000 1.24 Clear
04/18/2019 09:47 AM x x x x x x x 1.12 NE 2.24 N 5.14 NE No 0.000 No Precipitation 04/16/2019 02:59 AM 04/16/2019 03:03 AM 0.000 0.000 0.000 0.000 0.000 1.24 Clear
04/18/2019 09:48 AM x x x x x x x 1.57 N 1.34 NW 5.14 NE No 0.000 No Precipitation 04/16/2019 02:59 AM 04/16/2019 03:03 AM 0.000 0.000 0.000 0.000 0.000 1.24 Clear
04/18/2019 09:49 AM x x x x x x x 2.01 NW 3.36 NW 5.14 NE No 0.000 No Precipitation 04/16/2019 02:59 AM 04/16/2019 03:03 AM 0.000 0.000 0.000 0.000 0.000 1.24 Clear
04/18/2019 09:50 AM x x x x x x x 2.46 NW 2.01 NW 5.14 NE No 0.000 No Precipitation 04/16/2019 02:59 AM 04/16/2019 03:03 AM 0.000 0.000 0.000 0.000 0.000 1.24 Clear
04/18/2019 09:51 AM x x x x x x x 2.01 NW 2.01 NE 4.03 E No 0.000 No Precipitation 04/16/2019 02:59 AM 04/16/2019 03:03 AM 0.000 0.000 0.000 0.000 0.000 1.24 Clear
04/18/2019 09:52 AM x x x x x x x 1.57 N 2.91 NW 4.25 N No 0.000 No Precipitation 04/16/2019 02:59 AM 04/16/2019 03:03 AM 0.000 0.000 0.000 0.000 0.000 1.24 Clear
04/18/2019 09:53 AM x x x x x x x 2.24 NW 3.13 NW 4.25 N No 0.000 No Precipitation 04/16/2019 02:59 AM 04/16/2019 03:03 AM 0.000 0.000 0.000 0.000 0.000 1.24 Clear
04/18/2019 09:54 AM x x x x x x x 2.24 NW 1.34 W 4.25 N No 0.000 No Precipitation 04/16/2019 02:59 AM 04/16/2019 03:03 AM 0.000 0.000 0.000 0.000 0.000 1.24 Clear
04/18/2019 09:55 AM x x x x x x x 2.01 W 2.68 W 4.25 N No 0.000 No Precipitation 04/16/2019 02:59 AM 04/16/2019 03:03 AM 0.000 0.000 0.000 0.000 0.000 1.24 Clear
04/18/2019 09:56 AM x x x x x x x 2.01 W 1.57 W 4.25 N No 0.000 No Precipitation 04/16/2019 02:59 AM 04/16/2019 03:03 AM 0.000 0.000 0.000 0.000 0.000 1.24 Clear
04/18/2019 09:57 AM x x x x x x x 1.79 W 1.79 W 4.25 N No 0.000 No Precipitation 04/16/2019 02:59 AM 04/16/2019 03:03 AM 0.000 0.000 0.000 0.000 0.000 1.24 Clear
04/18/2019 09:58 AM x x x x x x x 1.57 W 1.57 SW 4.25 N No 0.000 No Precipitation 04/16/2019 02:59 AM 04/16/2019 03:03 AM 0.000 0.000 0.000 0.000 0.000 1.24 Clear
04/18/2019 09:59 AM x x x x x x x 2.01 S 3.13 S 4.25 N No 0.000 No Precipitation 04/16/2019 02:59 AM 04/16/2019 03:03 AM 0.000 0.000 0.000 0.000 0.000 1.24 Clear
04/18/2019 10:00 AM x x x x x x x 2.68 S 2.68 SE 4.25 SW No 0.000 No Precipitation 04/16/2019 02:59 AM 04/16/2019 03:03 AM 0.000 0.000 0.000 0.000 0.000 1.24 Clear
04/18/2019 10:01 AM x x x x x x x 2.68 SE 1.34 S 4.25 SW No 0.000 No Precipitation 04/16/2019 02:59 AM 04/16/2019 03:03 AM 0.000 0.000 0.000 0.000 0.000 1.24 Clear
04/18/2019 10:02 AM x x x x x x x 1.79 SE 0.45 SE 4.25 SW No 0.000 No Precipitation 04/16/2019 02:59 AM 04/16/2019 03:03 AM 0.000 0.000 0.000 0.000 0.000 1.24 Clear
04/18/2019 10:03 AM x x x x x x x 1.34 SW 2.01 S 4.25 SW No 0.000 No Precipitation 04/16/2019 02:59 AM 04/16/2019 03:03 AM 0.000 0.000 0.000 0.000 0.000 1.24 Clear
04/18/2019 10:04 AM x x x x x x x 1.34 SW 1.79 S 4.25 SW No 0.000 No Precipitation 04/16/2019 02:59 AM 04/16/2019 03:03 AM 0.000 0.000 0.000 0.000 0.000 1.24 Clear
04/18/2019 10:05 AM x x x x x x x 1.79 S 3.58 NW 4.25 SW No 0.000 No Precipitation 04/16/2019 02:59 AM 04/16/2019 03:03 AM 0.000 0.000 0.000 0.000 0.000 1.24 Clear
04/18/2019 10:06 AM x x x x x x x 2.24 NW 2.68 NW 4.25 SW No 0.000 No Precipitation 04/16/2019 02:59 AM 04/16/2019 03:03 AM 0.000 0.000 0.000 0.000 0.000 1.24 Clear
04/18/2019 10:07 AM x x x x x x x 3.13 NW 2.46 NW 4.92 NW No 0.000 No Precipitation 04/16/2019 02:59 AM 04/16/2019 03:03 AM 0.000 0.000 0.000 0.000 0.000 1.24 Clear
04/18/2019 10:08 AM x x x x x x x 3.36 NW 3.13 NW 4.92 NW No 0.000 No Precipitation 04/16/2019 02:59 AM 04/16/2019 03:03 AM 0.000 0.000 0.000 0.000 0.000 1.24 Clear
04/18/2019 10:09 AM x x x x x x x 3.36 NW 3.80 W 4.92 NW No 0.000 No Precipitation 04/16/2019 02:59 AM 04/16/2019 03:03 AM 0.000 0.000 0.000 0.000 0.000 1.24 Clear
04/18/2019 10:10 AM x x x x x x x 2.91 W 0.67 W 4.92 NW No 0.000 No Precipitation 04/16/2019 02:59 AM 04/16/2019 03:03 AM 0.000 0.000 0.000 0.000 0.000 1.24 Clear
04/18/2019 10:11 AM x x x x x x x 2.24 W 4.03 NW 4.92 NW No 0.000 No Precipitation 04/16/2019 02:59 AM 04/16/2019 03:03 AM 0.000 0.000 0.000 0.000 0.000 1.24 Clear
04/18/2019 10:12 AM x x x x x x x 2.91 W 3.13 W 4.92 NW No 0.000 No Precipitation 04/16/2019 02:59 AM 04/16/2019 03:03 AM 0.000 0.000 0.000 0.000 0.000 1.24 Clear
04/18/2019 10:13 AM x x x x x x x 3.36 W 2.91 W 4.92 NW No 0.000 No Precipitation 04/16/2019 02:59 AM 04/16/2019 03:03 AM 0.000 0.000 0.000 0.000 0.000 1.24 Clear
04/18/2019 10:15 AM x x x x x x x 4.03 W 5.37 W 5.59 W No 0.000 No Precipitation 04/16/2019 02:59 AM 04/16/2019 03:03 AM 0.000 0.000 0.000 0.000 0.000 1.24 Clear
04/18/2019 10:16 AM x x x x x x x 4.70 W 4.47 W 6.71 W No 0.000 No Precipitation 04/16/2019 02:59 AM 04/16/2019 03:03 AM 0.000 0.000 0.000 0.000 0.000 1.24 Clear
04/18/2019 10:17 AM x x x x x x x 4.47 W 2.68 W 6.71 W No 0.000 No Precipitation 04/16/2019 02:59 AM 04/16/2019 03:03 AM 0.000 0.000 0.000 0.000 0.000 1.24 Clear
04/18/2019 10:18 AM x x x x x x x 3.58 W 2.91 NW 6.71 W No 0.000 No Precipitation 04/16/2019 02:59 AM 04/16/2019 03:03 AM 0.000 0.000 0.000 0.000 0.000 1.24 Clear
04/18/2019 10:19 AM x x x x x x x 3.36 W 3.80 W 6.71 W No 0.000 No Precipitation 04/16/2019 02:59 AM 04/16/2019 03:03 AM 0.000 0.000 0.000 0.000 0.000 1.24 Clear
04/18/2019 10:20 AM x x x x x x x 3.13 NW 0.89 NW 6.71 W No 0.000 No Precipitation 04/16/2019 02:59 AM 04/16/2019 03:03 AM 0.000 0.000 0.000 0.000 0.000 1.24 Clear
04/18/2019 10:21 AM x x x x x x x 2.24 W 4.70 NW 6.71 W No 0.000 No Precipitation 04/16/2019 02:59 AM 04/16/2019 03:03 AM 0.000 0.000 0.000 0.000 0.000 1.24 Clear
04/18/2019 10:22 AM x x x x x x x 3.13 W 5.59 W 6.71 W No 0.000 No Precipitation 04/16/2019 02:59 AM 04/16/2019 03:03 AM 0.000 0.000 0.000 0.000 0.000 1.24 Clear
04/18/2019 10:23 AM x x x x x x x 4.47 W 4.47 SW 6.71 W No 0.000 No Precipitation 04/16/2019 02:59 AM 04/16/2019 03:03 AM 0.000 0.000 0.000 0.000 0.000 1.24 Clear
04/18/2019 10:24 AM x x x x x x x 4.25 SW 3.13 W 6.71 W No 0.000 No Precipitation 04/16/2019 02:59 AM 04/16/2019 03:03 AM 0.000 0.000 0.000 0.000 0.000 1.24 Clear
04/18/2019 10:26 AM x x x x x x x 2.01 W 1.12 W 6.04 SW No 0.000 No Precipitation 04/16/2019 02:59 AM 04/16/2019 03:03 AM 0.000 0.000 0.000 0.000 0.000 1.24 Clear
04/18/2019 10:27 AM x x x x x x x 2.46 NW 4.92 NW 6.04 SW No 0.000 No Precipitation 04/16/2019 02:59 AM 04/16/2019 03:03 AM 0.000 0.000 0.000 0.000 0.000 1.24 Clear
04/18/2019 10:28 AM x x x x x x x 2.91 NW 3.80 NW 6.71 NW No 0.000 No Precipitation 04/16/2019 02:59 AM 04/16/2019 03:03 AM 0.000 0.000 0.000 0.000 0.000 1.24 Clear
04/18/2019 10:30 AM x x x x x x x 3.13 W 1.79 W 6.71 NW No 0.000 No Precipitation 04/16/2019 02:59 AM 04/16/2019 03:03 AM 0.000 0.000 0.000 0.000 0.000 1.24 Clear
04/18/2019 10:31 AM x x x x x x x 2.68 SW 0.45 S 6.71 NW No 0.000 No Precipitation 04/16/2019 02:59 AM 04/16/2019 03:03 AM 0.000 0.000 0.000 0.000 0.000 1.24 Clear
04/18/2019 10:32 AM x x x x x x x 1.79 S 1.34 S 6.71 NW No 0.000 No Precipitation 04/16/2019 02:59 AM 04/16/2019 03:03 AM 0.000 0.000 0.000 0.000 0.000 1.24 Clear
04/18/2019 10:33 AM x x x x x x x 1.79 S 2.01 S 6.71 NW No 0.000 No Precipitation 04/16/2019 02:59 AM 04/16/2019 03:03 AM 0.000 0.000 0.000 0.000 0.000 1.24 Clear
04/18/2019 10:34 AM x x